| time (UTC) | temp F | wind direction | speed MPH | gust MPH | rain 1hr in | rain 24hr in | rain mn in | humidity % | barometer mb |
| 20260503214018 | 80 | 103 | 6.0 | 10.0 | 0.00 | 0.00 | 0.00 | 39 | 1012.5 |
| 20260503213920 | 80 | 97 | 5.0 | 7.0 | 0.00 | 0.00 | 0.00 | 40 | 1012.5 |
| 20260503213819 | 80 | 137 | 6.0 | 7.0 | 0.00 | 0.00 | 0.00 | 42 | 1012.4 |
| 20260503213720 | 80 | 128 | 4.0 | 7.0 | 0.00 | 0.00 | 0.00 | 43 | 1012.5 |
| 20260503213618 | 79 | 113 | 2.0 | 7.0 | 0.00 | 0.00 | 0.00 | 39 | 1012.5 |
| 20260503213520 | 79 | 137 | 1.0 | 7.0 | 0.00 | 0.00 | 0.00 | 39 | 1012.5 |
| 20260503213418 | 79 | 137 | 1.0 | 7.0 | 0.00 | 0.00 | 0.00 | 39 | 1012.5 |
| 20260503213318 | 79 | 137 | 2.0 | 7.0 | 0.00 | 0.00 | 0.00 | 38 | 1012.6 |
| 20260503213220 | 79 | 127 | 3.0 | 7.0 | 0.00 | 0.00 | 0.00 | 39 | 1012.6 |
| 20260503213119 | 79 | 195 | 2.0 | 9.0 | 0.00 | 0.00 | 0.00 | 39 | 1012.7 |
| 20260503213018 | 79 | 106 | 2.0 | 9.0 | 0.00 | 0.00 | 0.00 | 39 | 1012.7 |
| 20260503212918 | 80 | 106 | 4.0 | 9.0 | 0.00 | 0.00 | 0.00 | 39 | 1012.7 |
| 20260503212819 | 80 | 107 | 5.0 | 9.0 | 0.00 | 0.00 | 0.00 | 38 | 1012.9 |
| 20260503212719 | 80 | 117 | 5.0 | 9.0 | 0.00 | 0.00 | 0.00 | 40 | 1012.8 |
| 20260503212618 | 80 | 106 | 4.0 | 9.0 | 0.00 | 0.00 | 0.00 | 40 | 1012.9 |
| 20260503212519 | 80 | 109 | 4.0 | 9.0 | 0.00 | 0.00 | 0.00 | 41 | 1013.0 |
| 20260503212418 | 80 | 107 | 3.0 | 9.0 | 0.00 | 0.00 | 0.00 | 40 | 1013.1 |
| 20260503212318 | 80 | 78 | 5.0 | 9.0 | 0.00 | 0.00 | 0.00 | 40 | 1013.1 |
| 20260503212219 | 80 | 92 | 4.0 | 10.0 | 0.00 | 0.00 | 0.00 | 41 | 1013.1 |
| 20260503212117 | 80 | 106 | 3.0 | 10.0 | 0.00 | 0.00 | 0.00 | 41 | 1013.1 |
| 20260503212019 | 80 | 55 | 4.0 | 10.0 | 0.00 | 0.00 | 0.00 | 41 | 1013.0 |
| 20260503211919 | 80 | 42 | 4.0 | 10.0 | 0.00 | 0.00 | 0.00 | 41 | 1013.2 |
| 20260503211819 | 80 | 71 | 3.0 | 10.0 | 0.00 | 0.00 | 0.00 | 43 | 1013.1 |
| 20260503211718 | 80 | 79 | 4.0 | 10.0 | 0.00 | 0.00 | 0.00 | 43 | 1013.1 |
| 20260503211617 | 80 | 83 | 5.0 | 10.0 | 0.00 | 0.00 | 0.00 | 40 | 1013.1 |
| 20260503211520 | 80 | 96 | 5.0 | 10.0 | 0.00 | 0.00 | 0.00 | 40 | 1013.1 |
| 20260503211419 | 80 | 110 | 7.0 | 10.0 | 0.00 | 0.00 | 0.00 | 40 | 1013.1 |
| 20260503211317 | 80 | 102 | 7.0 | 10.0 | 0.00 | 0.00 | 0.00 | 40 | 1013.0 |
| 20260503211218 | 80 | 118 | 6.0 | 7.0 | 0.00 | 0.00 | 0.00 | 40 | 1013.0 |
| 20260503211119 | 80 | 111 | 4.0 | 7.0 | 0.00 | 0.00 | 0.00 | 40 | 1013.1 |
| 20260503211018 | 80 | 120 | 3.0 | 7.0 | 0.00 | 0.00 | 0.00 | 42 | 1013.0 |
| 20260503210917 | 80 | 151 | 2.0 | 7.0 | 0.00 | 0.00 | 0.00 | 41 | 1013.1 |
| 20260503210819 | 80 | 157 | 2.0 | 7.0 | 0.00 | 0.00 | 0.00 | 41 | 1013.0 |
| 20260503210719 | 80 | 137 | 5.0 | 7.0 | 0.00 | 0.00 | 0.00 | 42 | 1013.1 |
| 20260503210619 | 80 | 123 | 6.0 | 7.0 | 0.00 | 0.00 | 0.00 | 44 | 1013.1 |
| 20260503210517 | 80 | 102 | 5.0 | 7.0 | 0.00 | 0.00 | 0.00 | 44 | 1013.2 |
| 20260503210418 | 79 | 145 | 4.0 | 7.0 | 0.00 | 0.00 | 0.00 | 44 | 1013.1 |
| 20260503210317 | 79 | 100 | 4.0 | 5.0 | 0.00 | 0.00 | 0.00 | 44 | 1013.2 |
| 20260503210219 | 78 | 76 | 3.0 | 6.0 | 0.00 | 0.00 | 0.00 | 42 | 1013.2 |
| 20260503210120 | 79 | 59 | 3.0 | 6.0 | 0.00 | 0.00 | 0.00 | 43 | 1013.2 |
| 20260503210018 | 79 | 61 | 3.0 | 6.0 | 0.00 | 0.00 | 0.00 | 43 | 1013.1 |
| 20260503205917 | 79 | 63 | 4.0 | 6.0 | 0.00 | 0.00 | 0.00 | 41 | 1013.2 |
| 20260503205818 | 80 | 51 | 4.0 | 6.0 | 0.00 | 0.00 | 0.00 | 42 | 1013.2 |
| 20260503205718 | 80 | 49 | 4.0 | 6.0 | 0.00 | 0.00 | 0.00 | 42 | 1013.3 |
| 20260503205617 | 80 | 63 | 3.0 | 6.0 | 0.00 | 0.00 | 0.00 | 41 | 1013.2 |
| 20260503205518 | 81 | 94 | 3.0 | 6.0 | 0.00 | 0.00 | 0.00 | 41 | 1013.2 |
| 20260503205419 | 80 | 111 | 4.0 | 6.0 | 0.00 | 0.00 | 0.00 | 42 | 1013.3 |
| 20260503205318 | 80 | 106 | 3.0 | 6.0 | 0.00 | 0.00 | 0.00 | 42 | 1013.2 |
| 20260503205218 | 80 | 151 | 4.0 | 5.0 | 0.00 | 0.00 | 0.00 | 40 | 1013.3 |
| 20260503205118 | 80 | 111 | 2.0 | 5.0 | 0.00 | 0.00 | 0.00 | 42 | 1013.3 |
| 20260503205017 | 80 | 131 | 1.0 | 4.0 | 0.00 | 0.00 | 0.00 | 38 | 1013.3 |
| 20260503204919 | 80 | 169 | 2.0 | 4.0 | 0.00 | 0.00 | 0.00 | 41 | 1013.4 |
| 20260503204817 | 80 | 169 | 2.0 | 4.0 | 0.00 | 0.00 | 0.00 | 41 | 1013.4 |
| 20260503204719 | 80 | 168 | 2.0 | 4.0 | 0.00 | 0.00 | 0.00 | 40 | 1013.4 |
| 20260503204618 | 80 | 169 | 3.0 | 4.0 | 0.00 | 0.00 | 0.00 | 38 | 1013.4 |
| 20260503204517 | 80 | 145 | 2.0 | 4.0 | 0.00 | 0.00 | 0.00 | 38 | 1013.4 |
| 20260503204418 | 80 | 213 | 2.0 | 4.0 | 0.00 | 0.00 | 0.00 | 40 | 1013.4 |
| 20260503204318 | 80 | 224 | 1.0 | 4.0 | 0.00 | 0.00 | 0.00 | 42 | 1013.4 |
| 20260503204218 | 80 | 226 | 1.0 | 4.0 | 0.00 | 0.00 | 0.00 | 42 | 1013.5 |
| 20260503204116 | 80 | 0 | 1.0 | 4.0 | 0.00 | 0.00 | 0.00 | 43 | 1013.5 |
| 20260503204018 | 80 | 0 | 0.0 | 7.0 | 0.00 | 0.00 | 0.00 | 39 | 1013.5 |
| 20260503203917 | 79 | 0 | 0.0 | 7.0 | 0.00 | 0.00 | 0.00 | 39 | 1013.5 |
| 20260503203820 | 79 | 0 | 1.0 | 7.0 | 0.00 | 0.00 | 0.00 | 38 | 1013.6 |
| 20260503203718 | 80 | 0 | 2.0 | 7.0 | 0.00 | 0.00 | 0.00 | 43 | 1013.6 |
| 20260503203619 | 80 | 0 | 2.0 | 9.0 | 0.00 | 0.00 | 0.00 | 43 | 1013.6 |
| 20260503203518 | 80 | 93 | 2.0 | 9.0 | 0.00 | 0.00 | 0.00 | 39 | 1013.5 |
| 20260503203418 | 80 | 93 | 2.0 | 9.0 | 0.00 | 0.00 | 0.00 | 44 | 1013.6 |
| 20260503203318 | 80 | 94 | 4.0 | 9.0 | 0.00 | 0.00 | 0.00 | 41 | 1013.7 |
| 20260503203218 | 80 | 80 | 4.0 | 9.0 | 0.00 | 0.00 | 0.00 | 41 | 1013.6 |
| 20260503203116 | 80 | 82 | 5.0 | 9.0 | 0.00 | 0.00 | 0.00 | 41 | 1013.7 |
| 20260503203018 | 80 | 94 | 4.0 | 9.0 | 0.00 | 0.00 | 0.00 | 38 | 1013.7 |
| 20260503202916 | 80 | 96 | 4.0 | 9.0 | 0.00 | 0.00 | 0.00 | 42 | 1013.7 |
| 20260503202817 | 80 | 127 | 6.0 | 9.0 | 0.00 | 0.00 | 0.00 | 42 | 1013.7 |
| 20260503202718 | 80 | 106 | 5.0 | 9.0 | 0.00 | 0.00 | 0.00 | 42 | 1013.7 |
| 20260503202617 | 80 | 104 | 4.0 | 9.0 | 0.00 | 0.00 | 0.00 | 42 | 1013.8 |
| 20260503202517 | 80 | 106 | 5.0 | 9.0 | 0.00 | 0.00 | 0.00 | 42 | 1013.8 |
| 20260503202418 | 80 | 93 | 5.0 | 9.0 | 0.00 | 0.00 | 0.00 | 40 | 1013.9 |
| 20260503202316 | 80 | 93 | 4.0 | 9.0 | 0.00 | 0.00 | 0.00 | 40 | 1013.8 |
| 20260503202216 | 80 | 86 | 4.0 | 9.0 | 0.00 | 0.00 | 0.00 | 40 | 1013.8 |
| 20260503202118 | 80 | 89 | 6.0 | 6.0 | 0.00 | 0.00 | 0.00 | 40 | 1013.8 |
| 20260503202017 | 80 | 82 | 5.0 | 6.0 | 0.00 | 0.00 | 0.00 | 40 | 1013.8 |
| 20260503201918 | 80 | 125 | 4.0 | 7.0 | 0.00 | 0.00 | 0.00 | 43 | 1013.8 |
| 20260503201817 | 80 | 241 | 3.0 | 7.0 | 0.00 | 0.00 | 0.00 | 41 | 1013.7 |
| 20260503201716 | 80 | 200 | 2.0 | 7.0 | 0.00 | 0.00 | 0.00 | 39 | 1013.8 |
| 20260503201619 | 80 | 164 | 3.0 | 10.0 | 0.00 | 0.00 | 0.00 | 43 | 1013.8 |
| 20260503201517 | 80 | 149 | 4.0 | 10.0 | 0.00 | 0.00 | 0.00 | 43 | 1013.9 |
| 20260503201417 | 80 | 144 | 3.0 | 10.0 | 0.00 | 0.00 | 0.00 | 43 | 1013.9 |
| 20260503201316 | 80 | 135 | 2.0 | 10.0 | 0.00 | 0.00 | 0.00 | 40 | 1013.9 |
| 20260503201217 | 80 | 172 | 2.0 | 10.0 | 0.00 | 0.00 | 0.00 | 39 | 1014.0 |
| 20260503201116 | 80 | 169 | 4.0 | 10.0 | 0.00 | 0.00 | 0.00 | 39 | 1014.0 |
| 20260503201017 | 80 | 151 | 6.0 | 10.0 | 0.00 | 0.00 | 0.00 | 43 | 1014.0 |
| 20260503200916 | 80 | 107 | 6.0 | 10.0 | 0.00 | 0.00 | 0.00 | 43 | 1014.1 |
| 20260503200817 | 80 | 109 | 6.0 | 10.0 | 0.00 | 0.00 | 0.00 | 43 | 1014.1 |
| 20260503200718 | 80 | 110 | 4.0 | 10.0 | 0.00 | 0.00 | 0.00 | 43 | 1014.1 |
| 20260503200618 | 80 | 159 | 2.0 | 4.0 | 0.00 | 0.00 | 0.00 | 41 | 1014.1 |
| 20260503200516 | 80 | 172 | 2.0 | 3.0 | 0.00 | 0.00 | 0.00 | 42 | 1014.1 |
| 20260503200416 | 80 | 175 | 2.0 | 4.0 | 0.00 | 0.00 | 0.00 | 38 | 1014.1 |
| 20260503200316 | 80 | 173 | 1.0 | 5.0 | 0.00 | 0.00 | 0.00 | 38 | 1014.2 |
| 20260503200217 | 80 | 168 | 2.0 | 6.0 | 0.00 | 0.00 | 0.00 | 38 | 1014.2 |
| 20260503200117 | 80 | 166 | 2.0 | 7.0 | 0.00 | 0.00 | 0.00 | 40 | 1014.2 |
| 20260503200018 | 80 | 106 | 1.0 | 7.0 | 0.00 | 0.00 | 0.00 | 39 | 1014.2 |
| 20260503195917 | 80 | 97 | 2.0 | 7.0 | 0.00 | 0.00 | 0.00 | 45 | 1014.1 |
| 20260503195816 | 80 | 72 | 2.0 | 7.0 | 0.00 | 0.00 | 0.00 | 45 | 1014.2 |
| 20260503195717 | 79 | 44 | 2.0 | 10.0 | 0.00 | 0.00 | 0.00 | 43 | 1014.2 |
| 20260503195616 | 79 | 44 | 2.0 | 10.0 | 0.00 | 0.00 | 0.00 | 42 | 1014.3 |
| 20260503195517 | 79 | 45 | 3.0 | 10.0 | 0.00 | 0.00 | 0.00 | 41 | 1014.3 |
| 20260503195415 | 79 | 49 | 4.0 | 10.0 | 0.00 | 0.00 | 0.00 | 41 | 1014.3 |
| 20260503195316 | 79 | 55 | 4.0 | 10.0 | 0.00 | 0.00 | 0.00 | 40 | 1014.3 |
| 20260503195217 | 79 | 86 | 4.0 | 10.0 | 0.00 | 0.00 | 0.00 | 41 | 1014.3 |
| 20260503195117 | 79 | 71 | 4.0 | 10.0 | 0.00 | 0.00 | 0.00 | 42 | 1014.3 |
| 20260503195017 | 80 | 103 | 4.0 | 10.0 | 0.00 | 0.00 | 0.00 | 42 | 1014.4 |
| 20260503194915 | 80 | 79 | 5.0 | 10.0 | 0.00 | 0.00 | 0.00 | 43 | 1014.3 |
| 20260503194815 | 79 | 103 | 6.0 | 10.0 | 0.00 | 0.00 | 0.00 | 43 | 1014.3 |
| 20260503194717 | 80 | 96 | 5.0 | 10.0 | 0.00 | 0.00 | 0.00 | 41 | 1014.4 |
| 20260503194617 | 80 | 111 | 4.0 | 7.0 | 0.00 | 0.00 | 0.00 | 40 | 1014.5 |
| 20260503194515 | 80 | 118 | 3.0 | 9.0 | 0.00 | 0.00 | 0.00 | 40 | 1014.4 |
| 20260503194417 | 80 | 166 | 2.0 | 9.0 | 0.00 | 0.00 | 0.00 | 40 | 1014.5 |
| 20260503194317 | 80 | 154 | 2.0 | 9.0 | 0.00 | 0.00 | 0.00 | 39 | 1014.4 |
| 20260503194215 | 80 | 152 | 3.0 | 9.0 | 0.00 | 0.00 | 0.00 | 42 | 1014.5 |
| 20260503194116 | 80 | 151 | 4.0 | 9.0 | 0.00 | 0.00 | 0.00 | 42 | 1014.5 |
| 20260503194016 | 80 | 118 | 2.0 | 9.0 | 0.00 | 0.00 | 0.00 | 42 | 1014.5 |
| 20260503193916 | 80 | 102 | 2.0 | 9.0 | 0.00 | 0.00 | 0.00 | 42 | 1014.5 |
| 20260503193817 | 80 | 92 | 3.0 | 9.0 | 0.00 | 0.00 | 0.00 | 39 | 1014.6 |
| 20260503193715 | 80 | 90 | 4.0 | 9.0 | 0.00 | 0.00 | 0.00 | 40 | 1014.6 |
| 20260503193615 | 80 | 104 | 5.0 | 9.0 | 0.00 | 0.00 | 0.00 | 40 | 1014.6 |
| 20260503193515 | 80 | 137 | 3.0 | 9.0 | 0.00 | 0.00 | 0.00 | 40 | 1014.6 |
| 20260503193416 | 80 | 161 | 2.0 | 9.0 | 0.00 | 0.00 | 0.00 | 42 | 1014.6 |
| 20260503193315 | 80 | 157 | 3.0 | 9.0 | 0.00 | 0.00 | 0.00 | 42 | 1014.6 |
| 20260503193215 | 80 | 135 | 5.0 | 9.0 | 0.00 | 0.00 | 0.00 | 42 | 1014.7 |
| 20260503193117 | 80 | 149 | 6.0 | 9.0 | 0.00 | 0.00 | 0.00 | 42 | 1014.7 |
| 20260503193017 | 80 | 104 | 5.0 | 9.0 | 0.00 | 0.00 | 0.00 | 42 | 1014.7 |
| 20260503192916 | 80 | 104 | 4.0 | 7.0 | 0.00 | 0.00 | 0.00 | 43 | 1014.7 |
| 20260503192815 | 80 | 107 | 3.0 | 7.0 | 0.00 | 0.00 | 0.00 | 41 | 1014.7 |
| 20260503192715 | 80 | 142 | 2.0 | 7.0 | 0.00 | 0.00 | 0.00 | 42 | 1014.7 |
| 20260503192617 | 80 | 111 | 3.0 | 7.0 | 0.00 | 0.00 | 0.00 | 40 | 1014.8 |
| 20260503192515 | 80 | 111 | 4.0 | 7.0 | 0.00 | 0.00 | 0.00 | 43 | 1014.7 |
| 20260503192415 | 80 | 151 | 4.0 | 7.0 | 0.00 | 0.00 | 0.00 | 42 | 1014.8 |
| 20260503192316 | 80 | 209 | 3.0 | 7.0 | 0.00 | 0.00 | 0.00 | 42 | 1014.8 |
| 20260503192216 | 80 | 76 | 2.0 | 10.0 | 0.00 | 0.00 | 0.00 | 42 | 1014.8 |
| 20260503192117 | 80 | 78 | 2.0 | 10.0 | 0.00 | 0.00 | 0.00 | 44 | 1014.9 |
| 20260503192016 | 80 | 78 | 2.0 | 10.0 | 0.00 | 0.00 | 0.00 | 45 | 1014.8 |
| 20260503191917 | 79 | 62 | 1.0 | 10.0 | 0.00 | 0.00 | 0.00 | 41 | 1014.8 |
| 20260503191816 | 79 | 85 | 3.0 | 10.0 | 0.00 | 0.00 | 0.00 | 41 | 1014.8 |
| 20260503191716 | 79 | 85 | 3.0 | 10.0 | 0.00 | 0.00 | 0.00 | 41 | 1014.8 |
| 20260503191615 | 79 | 85 | 3.0 | 10.0 | 0.00 | 0.00 | 0.00 | 41 | 1014.8 |
| 20260503191516 | 79 | 85 | 4.0 | 10.0 | 0.00 | 0.00 | 0.00 | 41 | 1014.8 |
| 20260503191417 | 79 | 102 | 4.0 | 10.0 | 0.00 | 0.00 | 0.00 | 44 | 1014.9 |
| 20260503191314 | 79 | 85 | 4.0 | 10.0 | 0.00 | 0.00 | 0.00 | 42 | 1014.9 |
| 20260503191216 | 79 | 76 | 3.0 | 10.0 | 0.00 | 0.00 | 0.00 | 39 | 1014.8 |
| 20260503191114 | 79 | 72 | 4.0 | 10.0 | 0.00 | 0.00 | 0.00 | 39 | 1014.9 |
| 20260503191015 | 79 | 73 | 4.0 | 10.0 | 0.00 | 0.00 | 0.00 | 44 | 1014.9 |
| 20260503190916 | 79 | 62 | 4.0 | 9.0 | 0.00 | 0.00 | 0.00 | 43 | 1015.0 |
| 20260503190815 | 79 | 82 | 6.0 | 9.0 | 0.00 | 0.00 | 0.00 | 44 | 1015.0 |
| 20260503190715 | 79 | 97 | 6.0 | 9.0 | 0.00 | 0.00 | 0.00 | 43 | 1015.0 |
| 20260503190616 | 79 | 113 | 3.0 | 7.0 | 0.00 | 0.00 | 0.00 | 42 | 1015.0 |
| 20260503190511 | 79 | 178 | 2.0 | 7.0 | 0.00 | 0.00 | 0.00 | 41 | 1015.1 |
| 20260503190408 | 79 | 178 | 2.0 | 7.0 | 0.00 | 0.00 | 0.00 | 41 | 1015.2 |
| 20260503190307 | 79 | 178 | 3.0 | 7.0 | 0.00 | 0.00 | 0.00 | 40 | 1015.1 |
| 20260503190206 | 79 | 240 | 2.0 | 7.0 | 0.00 | 0.00 | 0.00 | 41 | 1015.2 |
| 20260503190103 | 79 | 147 | 1.0 | 7.0 | 0.00 | 0.00 | 0.00 | 41 | 1015.1 |
| 20260503190005 | 79 | 145 | 3.0 | 7.0 | 0.00 | 0.00 | 0.00 | 41 | 1015.1 |
| 20260503185903 | 79 | 147 | 4.0 | 11.0 | 0.00 | 0.00 | 0.00 | 43 | 1015.3 |
| 20260503185802 | 78 | 128 | 4.0 | 11.0 | 0.00 | 0.00 | 0.00 | 43 | 1015.2 |
| 20260503185701 | 78 | 104 | 3.0 | 11.0 | 0.00 | 0.00 | 0.00 | 40 | 1015.2 |
| 20260503185604 | 79 | 111 | 3.0 | 11.0 | 0.00 | 0.00 | 0.00 | 40 | 1015.2 |
| 20260503185503 | 79 | 87 | 5.0 | 11.0 | 0.00 | 0.00 | 0.00 | 40 | 1015.3 |
| 20260503185404 | 79 | 69 | 4.0 | 11.0 | 0.00 | 0.00 | 0.00 | 42 | 1015.2 |
| 20260503185304 | 79 | 71 | 2.0 | 13.0 | 0.00 | 0.00 | 0.00 | 42 | 1015.2 |
| 20260503185202 | 79 | 103 | 2.0 | 13.0 | 0.00 | 0.00 | 0.00 | 42 | 1015.3 |
| 20260503185102 | 79 | 102 | 4.0 | 13.0 | 0.00 | 0.00 | 0.00 | 43 | 1015.3 |
| 20260503185002 | 79 | 113 | 6.0 | 13.0 | 0.00 | 0.00 | 0.00 | 45 | 1015.3 |
| 20260503184904 | 79 | 106 | 6.0 | 13.0 | 0.00 | 0.00 | 0.00 | 45 | 1015.3 |
| 20260503184804 | 79 | 110 | 5.0 | 13.0 | 0.00 | 0.00 | 0.00 | 43 | 1015.3 |
| 20260503184702 | 79 | 164 | 5.0 | 13.0 | 0.00 | 0.00 | 0.00 | 43 | 1015.3 |
| 20260503184604 | 79 | 97 | 5.0 | 13.0 | 0.00 | 0.00 | 0.00 | 43 | 1015.3 |
| 20260503184503 | 79 | 144 | 7.0 | 13.0 | 0.00 | 0.00 | 0.00 | 41 | 1015.4 |
| 20260503184402 | 79 | 121 | 6.0 | 13.0 | 0.00 | 0.00 | 0.00 | 45 | 1015.4 |
| 20260503184304 | 79 | 154 | 2.0 | 4.0 | 0.00 | 0.00 | 0.00 | 43 | 1015.4 |
| 20260503184201 | 79 | 158 | 0.0 | 4.0 | 0.00 | 0.00 | 0.00 | 43 | 1015.4 |
| 20260503184104 | 79 | 158 | 0.0 | 4.0 | 0.00 | 0.00 | 0.00 | 40 | 1015.4 |
| 20260503184002 | 79 | 158 | 1.0 | 4.0 | 0.00 | 0.00 | 0.00 | 41 | 1015.4 |
| 20260503183903 | 79 | 158 | 2.0 | 4.0 | 0.00 | 0.00 | 0.00 | 42 | 1015.4 |
| 20260503183803 | 79 | 159 | 2.0 | 4.0 | 0.00 | 0.00 | 0.00 | 42 | 1015.4 |
| 20260503183703 | 78 | 159 | 2.0 | 4.0 | 0.00 | 0.00 | 0.00 | 43 | 1015.5 |
| 20260503183602 | 78 | 161 | 1.0 | 4.0 | 0.00 | 0.00 | 0.00 | 42 | 1015.4 |
| 20260503183502 | 78 | 161 | 2.0 | 5.0 | 0.00 | 0.00 | 0.00 | 42 | 1015.3 |
| 20260503183403 | 78 | 161 | 2.0 | 9.0 | 0.00 | 0.00 | 0.00 | 41 | 1015.4 |
| 20260503183303 | 78 | 157 | 2.0 | 12.0 | 0.00 | 0.00 | 0.00 | 41 | 1015.4 |
| 20260503183203 | 78 | 149 | 2.0 | 12.0 | 0.00 | 0.00 | 0.00 | 42 | 1015.5 |
| 20260503183105 | 78 | 87 | 1.0 | 12.0 | 0.00 | 0.00 | 0.00 | 42 | 1015.4 |
| 20260503183003 | 78 | 34 | 0.0 | 12.0 | 0.00 | 0.00 | 0.00 | 42 | 1015.5 |
| 20260503182903 | 78 | 32 | 1.0 | 12.0 | 0.00 | 0.00 | 0.00 | 40 | 1015.5 |
| 20260503182803 | 78 | 32 | 3.0 | 12.0 | 0.00 | 0.00 | 0.00 | 40 | 1015.6 |
| 20260503182702 | 78 | 32 | 4.0 | 12.0 | 0.00 | 0.00 | 0.00 | 40 | 1015.6 |
| 20260503182602 | 79 | 32 | 4.0 | 12.0 | 0.00 | 0.00 | 0.00 | 44 | 1015.6 |
| 20260503182505 | 79 | 87 | 6.0 | 12.0 | 0.00 | 0.00 | 0.00 | 43 | 1015.6 |
| 20260503182403 | 79 | 100 | 7.0 | 12.0 | 0.00 | 0.00 | 0.00 | 43 | 1015.6 |
| 20260503182304 | 79 | 97 | 6.0 | 11.0 | 0.00 | 0.00 | 0.00 | 42 | 1015.6 |
| 20260503182203 | 79 | 100 | 5.0 | 7.0 | 0.00 | 0.00 | 0.00 | 44 | 1015.6 |
| 20260503182103 | 79 | 154 | 4.0 | 6.0 | 0.00 | 0.00 | 0.00 | 45 | 1015.6 |
| 20260503182005 | 79 | 169 | 2.0 | 5.0 | 0.00 | 0.00 | 0.00 | 46 | 1015.6 |
| 20260503181902 | 78 | 176 | 2.0 | 5.0 | 0.00 | 0.00 | 0.00 | 46 | 1015.7 |
| 20260503181803 | 78 | 182 | 3.0 | 6.0 | 0.00 | 0.00 | 0.00 | 46 | 1015.7 |
| 20260503181703 | 78 | 190 | 3.0 | 7.0 | 0.00 | 0.00 | 0.00 | 44 | 1015.7 |
| 20260503181603 | 78 | 223 | 1.0 | 7.0 | 0.00 | 0.00 | 0.00 | 43 | 1015.7 |
| 20260503181504 | 77 | 56 | 0.0 | 7.0 | 0.00 | 0.00 | 0.00 | 43 | 1015.9 |
| 20260503181403 | 77 | 56 | 1.0 | 7.0 | 0.00 | 0.00 | 0.00 | 44 | 1015.8 |
| 20260503181302 | 77 | 56 | 2.0 | 7.0 | 0.00 | 0.00 | 0.00 | 43 | 1015.9 |
| 20260503181202 | 77 | 56 | 3.0 | 7.0 | 0.00 | 0.00 | 0.00 | 42 | 1015.8 |
| 20260503181103 | 77 | 58 | 4.0 | 7.0 | 0.00 | 0.00 | 0.00 | 42 | 1015.8 |
| 20260503181005 | 78 | 58 | 4.0 | 7.0 | 0.00 | 0.00 | 0.00 | 42 | 1015.9 |
| 20260503180902 | 78 | 92 | 5.0 | 7.0 | 0.00 | 0.00 | 0.00 | 42 | 1015.9 |
| 20260503180804 | 78 | 103 | 4.0 | 7.0 | 0.00 | 0.00 | 0.00 | 43 | 1015.9 |
| 20260503180703 | 78 | 120 | 2.0 | 7.0 | 0.00 | 0.00 | 0.00 | 42 | 1015.9 |
| 20260503180603 | 78 | 134 | 2.0 | 7.0 | 0.00 | 0.00 | 0.00 | 47 | 1015.9 |
| 20260503180503 | 78 | 133 | 1.0 | 7.0 | 0.00 | 0.00 | 0.00 | 47 | 1015.9 |
| 20260503180403 | 78 | 68 | 1.0 | 7.0 | 0.00 | 0.00 | 0.00 | 44 | 1015.9 |
| 20260503180302 | 78 | 68 | 1.0 | 7.0 | 0.00 | 0.00 | 0.00 | 44 | 1015.9 |
| 20260503180202 | 78 | 66 | 2.0 | 7.0 | 0.00 | 0.00 | 0.00 | 45 | 1015.9 |
| 20260503180004 | 78 | 87 | 4.0 | 7.0 | 0.00 | 0.00 | 0.00 | 44 | 1016.0 |
| 20260503175904 | 78 | 111 | 5.0 | 9.0 | 0.00 | 0.00 | 0.00 | 44 | 1015.9 |
| 20260503175804 | 77 | 96 | 4.0 | 9.0 | 0.00 | 0.00 | 0.00 | 44 | 1016.0 |
| 20260503175703 | 77 | 92 | 4.0 | 9.0 | 0.00 | 0.00 | 0.00 | 42 | 1016.0 |
| 20260503175602 | 78 | 93 | 4.0 | 9.0 | 0.00 | 0.00 | 0.00 | 43 | 1016.1 |
| 20260503175503 | 78 | 85 | 5.0 | 9.0 | 0.00 | 0.00 | 0.00 | 44 | 1016.1 |
| 20260503175402 | 78 | 109 | 6.0 | 9.0 | 0.00 | 0.00 | 0.00 | 44 | 1016.1 |
| 20260503175305 | 78 | 106 | 4.0 | 9.0 | 0.00 | 0.00 | 0.00 | 47 | 1016.1 |
| 20260503175202 | 78 | 62 | 3.0 | 9.0 | 0.00 | 0.00 | 0.00 | 43 | 1016.1 |
| 20260503175103 | 78 | 35 | 4.0 | 9.0 | 0.00 | 0.00 | 0.00 | 43 | 1016.1 |
| 20260503175003 | 78 | 99 | 5.0 | 9.0 | 0.00 | 0.00 | 0.00 | 43 | 1016.2 |
| 20260503174903 | 78 | 109 | 4.0 | 6.0 | 0.00 | 0.00 | 0.00 | 42 | 1016.2 |
| 20260503174801 | 78 | 102 | 4.0 | 5.0 | 0.00 | 0.00 | 0.00 | 44 | 1016.3 |
| 20260503174703 | 78 | 104 | 2.0 | 5.0 | 0.00 | 0.00 | 0.00 | 46 | 1016.2 |
| 20260503174603 | 78 | 106 | 2.0 | 4.0 | 0.00 | 0.00 | 0.00 | 46 | 1016.3 |
| 20260503174502 | 77 | 106 | 2.0 | 5.0 | 0.00 | 0.00 | 0.00 | 46 | 1016.4 |
| 20260503174402 | 77 | 25 | 2.0 | 7.0 | 0.00 | 0.00 | 0.00 | 47 | 1016.4 |
| 20260503174304 | 76 | 274 | 2.0 | 7.0 | 0.00 | 0.00 | 0.00 | 45 | 1016.4 |
| 20260503174203 | 76 | 275 | 3.0 | 7.0 | 0.00 | 0.00 | 0.00 | 46 | 1016.4 |
| 20260503174102 | 76 | 275 | 3.0 | 7.0 | 0.00 | 0.00 | 0.00 | 45 | 1016.3 |
| 20260503174003 | 76 | 275 | 3.0 | 7.0 | 0.00 | 0.00 | 0.00 | 44 | 1016.4 |
| 20260503173903 | 76 | 275 | 1.0 | 10.0 | 0.00 | 0.00 | 0.00 | 42 | 1016.5 |
| 20260503173804 | 77 | 118 | 0.0 | 11.0 | 0.00 | 0.00 | 0.00 | 42 | 1016.5 |
| 20260503173702 | 77 | 118 | 1.0 | 11.0 | 0.00 | 0.00 | 0.00 | 42 | 1016.6 |
| 20260503173603 | 77 | 118 | 4.0 | 11.0 | 0.00 | 0.00 | 0.00 | 42 | 1016.6 |
| 20260503173506 | 77 | 99 | 3.0 | 11.0 | 0.00 | 0.00 | 0.00 | 44 | 1016.5 |
| 20260503173402 | 77 | 125 | 2.0 | 11.0 | 0.00 | 0.00 | 0.00 | 43 | 1016.6 |
| 20260503173303 | 77 | 92 | 3.0 | 11.0 | 0.00 | 0.00 | 0.00 | 43 | 1016.6 |
| 20260503173202 | 77 | 92 | 5.0 | 11.0 | 0.00 | 0.00 | 0.00 | 43 | 1016.6 |
| 20260503173102 | 78 | 104 | 6.0 | 11.0 | 0.00 | 0.00 | 0.00 | 42 | 1016.6 |
| 20260503173003 | 78 | 104 | 6.0 | 11.0 | 0.00 | 0.00 | 0.00 | 46 | 1016.6 |
| 20260503172902 | 78 | 90 | 4.0 | 11.0 | 0.00 | 0.00 | 0.00 | 46 | 1016.5 |
| 20260503172803 | 78 | 83 | 2.0 | 4.0 | 0.00 | 0.00 | 0.00 | 47 | 1016.5 |
| 20260503172705 | 78 | 102 | 2.0 | 4.0 | 0.00 | 0.00 | 0.00 | 47 | 1016.6 |
| 20260503172603 | 78 | 97 | 2.0 | 4.0 | 0.00 | 0.00 | 0.00 | 46 | 1016.6 |
| 20260503172504 | 78 | 96 | 3.0 | 4.0 | 0.00 | 0.00 | 0.00 | 46 | 1016.6 |
| 20260503172403 | 78 | 159 | 2.0 | 4.0 | 0.00 | 0.00 | 0.00 | 47 | 1016.6 |
| 20260503172305 | 78 | 164 | 2.0 | 5.0 | 0.00 | 0.00 | 0.00 | 46 | 1016.6 |
| 20260503172202 | 77 | 164 | 2.0 | 5.0 | 0.00 | 0.00 | 0.00 | 48 | 1016.7 |
| 20260503172103 | 77 | 172 | 2.0 | 5.0 | 0.00 | 0.00 | 0.00 | 47 | 1016.7 |
| 20260503172003 | 77 | 172 | 2.0 | 5.0 | 0.00 | 0.00 | 0.00 | 46 | 1016.6 |
| 20260503171901 | 77 | 185 | 2.0 | 5.0 | 0.00 | 0.00 | 0.00 | 46 | 1016.7 |
| 20260503171803 | 77 | 175 | 2.0 | 5.0 | 0.00 | 0.00 | 0.00 | 45 | 1016.7 |
| 20260503171703 | 78 | 183 | 3.0 | 5.0 | 0.00 | 0.00 | 0.00 | 45 | 1016.8 |
| 20260503171602 | 78 | 116 | 3.0 | 5.0 | 0.00 | 0.00 | 0.00 | 45 | 1016.8 |
| 20260503171503 | 78 | 158 | 3.0 | 5.0 | 0.00 | 0.00 | 0.00 | 46 | 1016.8 |
| 20260503171405 | 78 | 162 | 2.0 | 5.0 | 0.00 | 0.00 | 0.00 | 49 | 1016.8 |
| 20260503171304 | 78 | 168 | 1.0 | 4.0 | 0.00 | 0.00 | 0.00 | 50 | 1016.8 |
| 20260503171204 | 77 | 54 | 1.0 | 4.0 | 0.00 | 0.00 | 0.00 | 50 | 1016.8 |
| 20260503171104 | 77 | 54 | 1.0 | 4.0 | 0.00 | 0.00 | 0.00 | 46 | 1016.9 |
| 20260503171002 | 76 | 54 | 0.0 | 7.0 | 0.00 | 0.00 | 0.00 | 47 | 1016.8 |
| 20260503170903 | 76 | 54 | 2.0 | 7.0 | 0.00 | 0.00 | 0.00 | 47 | 1016.9 |
| 20260503170803 | 76 | 54 | 3.0 | 7.0 | 0.00 | 0.00 | 0.00 | 48 | 1016.9 |
| 20260503170703 | 76 | 54 | 3.0 | 7.0 | 0.00 | 0.00 | 0.00 | 48 | 1016.9 |
| 20260503170602 | 76 | 31 | 3.0 | 7.0 | 0.00 | 0.00 | 0.00 | 45 | 1017.0 |
| 20260503170505 | 77 | 54 | 3.0 | 7.0 | 0.00 | 0.00 | 0.00 | 47 | 1017.1 |
| 20260503170403 | 77 | 56 | 2.0 | 7.0 | 0.00 | 0.00 | 0.00 | 47 | 1017.0 |
| 20260503170304 | 77 | 114 | 2.0 | 7.0 | 0.00 | 0.00 | 0.00 | 46 | 1017.0 |
| 20260503170204 | 77 | 116 | 3.0 | 7.0 | 0.00 | 0.00 | 0.00 | 46 | 1017.0 |
| 20260503160204 | 75 | 127 | 1.0 | 4.0 | 0.00 | 0.00 | 0.00 | 51 | 1017.1 |
| 20260503160105 | 75 | 127 | 2.0 | 4.0 | 0.00 | 0.00 | 0.00 | 51 | 1017.1 |
| 20260503150932 | 74 | 141 | 2.0 | 5.0 | 0.00 | 0.00 | 0.00 | 55 | 1016.9 |
| 20260503150833 | 74 | 141 | 3.0 | 5.0 | 0.00 | 0.00 | 0.00 | 55 | 1016.8 |
| 20260503150733 | 73 | 148 | 3.0 | 5.0 | 0.00 | 0.00 | 0.00 | 56 | 1016.9 |
| 20260503150630 | 73 | 151 | 2.0 | 5.0 | 0.00 | 0.00 | 0.00 | 56 | 1016.9 |
| 20260503150532 | 73 | 145 | 2.0 | 5.0 | 0.00 | 0.00 | 0.00 | 55 | 1016.9 |
| 20260503150431 | 73 | 148 | 2.0 | 5.0 | 0.00 | 0.00 | 0.00 | 55 | 1017.0 |
| 20260503150328 | 73 | 140 | 3.0 | 6.0 | 0.00 | 0.00 | 0.00 | 55 | 1016.9 |
| 20260503150223 | 73 | 125 | 3.0 | 6.0 | 0.00 | 0.00 | 0.00 | 55 | 1016.9 |
| 20260503150122 | 73 | 135 | 3.0 | 6.0 | 0.00 | 0.00 | 0.00 | 55 | 1017.0 |
| 20260503140308 | 69 | 107 | 3.0 | 6.0 | 0.00 | 0.00 | 0.00 | 66 | 1016.7 |
| 20260503140205 | 69 | 106 | 3.0 | 6.0 | 0.00 | 0.00 | 0.00 | 67 | 1016.7 |
| 20260503140107 | 69 | 100 | 2.0 | 6.0 | 0.00 | 0.00 | 0.00 | 67 | 1016.7 |
| 20260503131404 | 63 | 90 | 0.0 | 2.0 | 0.00 | 0.00 | 0.00 | 86 | 1016.1 |
| 20260503131304 | 63 | 83 | 0.0 | 2.0 | 0.00 | 0.00 | 0.00 | 86 | 1016.2 |
| 20260503131205 | 63 | 83 | 0.0 | 2.0 | 0.00 | 0.00 | 0.00 | 87 | 1016.2 |
| 20260503131107 | 63 | 82 | 0.0 | 2.0 | 0.00 | 0.00 | 0.00 | 87 | 1016.2 |
| 20260503131004 | 63 | 82 | 0.0 | 2.0 | 0.00 | 0.00 | 0.00 | 89 | 1016.2 |
| 20260503130904 | 63 | 82 | 0.0 | 2.0 | 0.00 | 0.00 | 0.00 | 89 | 1016.2 |
| 20260503130807 | 63 | 76 | 0.0 | 0.0 | 0.00 | 0.00 | 0.00 | 90 | 1016.3 |
| 20260503130705 | 62 | 76 | 0.0 | 0.0 | 0.00 | 0.00 | 0.00 | 89 | 1016.3 |
| 20260503130606 | 62 | 76 | 0.0 | 0.0 | 0.00 | 0.00 | 0.00 | 89 | 1016.2 |
| 20260503130505 | 62 | 76 | 0.0 | 0.0 | 0.00 | 0.00 | 0.00 | 90 | 1016.3 |
| 20260503130406 | 62 | 76 | 0.0 | 0.0 | 0.00 | 0.00 | 0.00 | 90 | 1016.3 |
| 20260503130305 | 62 | 76 | 0.0 | 0.0 | 0.00 | 0.00 | 0.00 | 91 | 1016.4 |
| 20260503130205 | 62 | 76 | 0.0 | 0.0 | 0.00 | 0.00 | 0.00 | 91 | 1016.3 |
| 20260503130106 | 62 | 76 | 0.0 | 0.0 | 0.00 | 0.00 | 0.00 | 91 | 1016.3 |
| 20260503120204 | 57 | 76 | 0.0 | 0.0 | 0.00 | 0.00 | 0.00 | 92 | 1015.9 |
| 20260503120103 | 57 | 76 | 0.0 | 0.0 | 0.00 | 0.00 | 0.00 | 92 | 1015.8 |
| 20260503110803 | 57 | 76 | 0.0 | 0.0 | 0.00 | 0.00 | 0.00 | 92 | 1015.5 |
| 20260503110703 | 57 | 76 | 0.0 | 0.0 | 0.00 | 0.00 | 0.00 | 92 | 1015.4 |
| 20260503110602 | 57 | 76 | 0.0 | 0.0 | 0.00 | 0.00 | 0.00 | 92 | 1015.4 |
| 20260503110502 | 57 | 76 | 0.0 | 0.0 | 0.00 | 0.00 | 0.00 | 92 | 1015.4 |
| 20260503110403 | 57 | 76 | 0.0 | 0.0 | 0.00 | 0.00 | 0.00 | 92 | 1015.4 |
| 20260503110245 | 57 | 76 | 0.0 | 0.0 | 0.00 | 0.00 | 0.00 | 92 | 1015.3 |
| 20260503110135 | 57 | 76 | 0.0 | 0.0 | 0.00 | 0.00 | 0.00 | 92 | 1015.3 |
| 20260503100202 | 58 | 76 | 0.0 | 0.0 | 0.00 | 0.00 | 0.00 | 91 | 1015.0 |
| 20260503090502 | 58 | 76 | 0.0 | 0.0 | 0.00 | 0.00 | 0.00 | 91 | 1014.8 |
| 20260503090403 | 58 | 76 | 0.0 | 0.0 | 0.00 | 0.00 | 0.00 | 91 | 1014.7 |
| 20260503090302 | 58 | 76 | 0.0 | 0.0 | 0.00 | 0.00 | 0.00 | 91 | 1014.8 |
| 20260503090202 | 58 | 76 | 0.0 | 0.0 | 0.00 | 0.00 | 0.00 | 91 | 1014.8 |
| 20260503081603 | 59 | 76 | 0.0 | 0.0 | 0.00 | 0.00 | 0.00 | 90 | 1014.8 |
| 20260503081504 | 59 | 76 | 0.0 | 0.0 | 0.00 | 0.00 | 0.00 | 90 | 1015.0 |
| 20260503081402 | 59 | 76 | 0.0 | 0.0 | 0.00 | 0.00 | 0.00 | 90 | 1014.9 |
| 20260503081302 | 59 | 76 | 0.0 | 0.0 | 0.00 | 0.00 | 0.00 | 90 | 1014.8 |
| 20260503081203 | 60 | 76 | 0.0 | 0.0 | 0.00 | 0.00 | 0.00 | 90 | 1014.9 |
| 20260503081102 | 60 | 76 | 0.0 | 0.0 | 0.00 | 0.00 | 0.00 | 90 | 1014.8 |
| 20260503081002 | 60 | 76 | 0.0 | 0.0 | 0.00 | 0.00 | 0.00 | 90 | 1014.8 |
| 20260503080904 | 60 | 76 | 0.0 | 0.0 | 0.00 | 0.00 | 0.00 | 90 | 1014.9 |
| 20260503080802 | 60 | 76 | 0.0 | 0.0 | 0.00 | 0.00 | 0.00 | 90 | 1014.9 |
| 20260503080703 | 60 | 76 | 0.0 | 0.0 | 0.00 | 0.00 | 0.00 | 90 | 1014.9 |
| 20260503080602 | 60 | 76 | 0.0 | 0.0 | 0.00 | 0.00 | 0.00 | 90 | 1014.9 |
| 20260503080503 | 60 | 76 | 0.0 | 0.0 | 0.00 | 0.00 | 0.00 | 90 | 1014.9 |
| 20260503080403 | 60 | 76 | 0.0 | 0.0 | 0.00 | 0.00 | 0.00 | 90 | 1014.9 |
| 20260503080303 | 60 | 76 | 0.0 | 0.0 | 0.00 | 0.00 | 0.00 | 90 | 1015.0 |
| 20260503080202 | 60 | 76 | 0.0 | 0.0 | 0.00 | 0.00 | 0.00 | 90 | 1015.0 |
| 20260503072932 | 60 | 76 | 0.0 | 0.0 | 0.00 | 0.00 | 0.00 | 89 | 1014.9 |
| 20260503072831 | 60 | 76 | 0.0 | 0.0 | 0.00 | 0.00 | 0.00 | 89 | 1015.0 |
| 20260503072731 | 60 | 76 | 0.0 | 0.0 | 0.00 | 0.00 | 0.00 | 89 | 1014.9 |
| 20260503072631 | 60 | 76 | 0.0 | 0.0 | 0.00 | 0.00 | 0.00 | 89 | 1014.9 |
| 20260503072531 | 60 | 76 | 0.0 | 0.0 | 0.00 | 0.00 | 0.00 | 89 | 1014.9 |
| 20260503072432 | 60 | 76 | 0.0 | 0.0 | 0.00 | 0.00 | 0.00 | 89 | 1015.0 |
| 20260503072331 | 60 | 76 | 0.0 | 0.0 | 0.00 | 0.00 | 0.00 | 89 | 1014.9 |
| 20260503072232 | 60 | 76 | 0.0 | 0.0 | 0.00 | 0.00 | 0.00 | 89 | 1014.9 |
| 20260503072129 | 60 | 76 | 0.0 | 0.0 | 0.00 | 0.00 | 0.00 | 89 | 1014.9 |
| 20260503072030 | 60 | 76 | 0.0 | 0.0 | 0.00 | 0.00 | 0.00 | 89 | 1014.9 |
| 20260503071927 | 60 | 76 | 0.0 | 0.0 | 0.00 | 0.00 | 0.00 | 89 | 1014.9 |
| 20260503071828 | 60 | 76 | 0.0 | 0.0 | 0.00 | 0.00 | 0.00 | 89 | 1014.9 |
| 20260503071725 | 60 | 76 | 0.0 | 0.0 | 0.00 | 0.00 | 0.00 | 89 | 1015.0 |
| 20260503071604 | 60 | 76 | 0.0 | 0.0 | 0.00 | 0.00 | 0.00 | 89 | 1015.0 |
| 20260503071506 | 60 | 76 | 0.0 | 0.0 | 0.00 | 0.00 | 0.00 | 89 | 1015.1 |
| 20260503071401 | 60 | 76 | 0.0 | 0.0 | 0.00 | 0.00 | 0.00 | 89 | 1015.0 |
| 20260503071303 | 60 | 76 | 0.0 | 0.0 | 0.00 | 0.00 | 0.00 | 89 | 1015.0 |
| 20260503071204 | 60 | 76 | 0.0 | 0.0 | 0.00 | 0.00 | 0.00 | 89 | 1015.0 |
| 20260503071103 | 60 | 76 | 0.0 | 0.0 | 0.00 | 0.00 | 0.00 | 89 | 1015.0 |
| 20260503071004 | 60 | 76 | 0.0 | 0.0 | 0.00 | 0.00 | 0.00 | 89 | 1015.0 |
| 20260503070902 | 60 | 76 | 0.0 | 0.0 | 0.00 | 0.00 | 0.00 | 89 | 1015.0 |
| 20260503070802 | 60 | 76 | 0.0 | 0.0 | 0.00 | 0.00 | 0.00 | 89 | 1015.0 |
| 20260503070702 | 60 | 76 | 0.0 | 0.0 | 0.00 | 0.00 | 0.00 | 89 | 1015.0 |
| 20260503070603 | 60 | 76 | 0.0 | 0.0 | 0.00 | 0.00 | 0.00 | 89 | 1015.0 |
| 20260503070502 | 60 | 76 | 0.0 | 0.0 | 0.00 | 0.00 | 0.00 | 89 | 1015.0 |
| 20260503070404 | 60 | 76 | 0.0 | 0.0 | 0.00 | 0.00 | 0.00 | 89 | 1015.0 |
| 20260503070302 | 60 | 76 | 0.0 | 0.0 | 0.00 | 0.00 | 0.00 | 89 | 1015.1 |
| 20260503070203 | 60 | 76 | 0.0 | 0.0 | 0.00 | 0.00 | 0.00 | 89 | 1015.0 |
| 20260503070105 | 60 | 76 | 0.0 | 0.0 | 0.00 | 0.00 | 0.00 | 89 | 1015.0 |
| 20260503060303 | 62 | 76 | 0.0 | 0.0 | 0.00 | 0.00 | 0.00 | 88 | 1014.9 |
| 20260503060204 | 62 | 76 | 0.0 | 0.0 | 0.00 | 0.00 | 0.00 | 88 | 1014.9 |
| 20260503060104 | 62 | 76 | 0.0 | 0.0 | 0.00 | 0.00 | 0.00 | 87 | 1014.9 |
| 20260503055055 | 62 | 76 | 0.0 | 0.0 | 0.00 | 0.00 | 0.00 | 87 | 1015.1 |
| 20260503054954 | 62 | 76 | 0.0 | 0.0 | 0.00 | 0.00 | 0.00 | 87 | 1015.1 |
| 20260503054856 | 62 | 76 | 0.0 | 0.0 | 0.00 | 0.00 | 0.00 | 87 | 1015.1 |
| 20260503054755 | 62 | 76 | 0.0 | 0.0 | 0.00 | 0.00 | 0.00 | 87 | 1015.0 |
| 20260503054655 | 62 | 76 | 0.0 | 0.0 | 0.00 | 0.00 | 0.00 | 87 | 1015.0 |
| 20260503054556 | 62 | 76 | 0.0 | 0.0 | 0.00 | 0.00 | 0.00 | 87 | 1015.1 |
| 20260503054454 | 62 | 76 | 0.0 | 0.0 | 0.00 | 0.00 | 0.00 | 87 | 1015.0 |
| 20260503054355 | 62 | 76 | 0.0 | 0.0 | 0.00 | 0.00 | 0.00 | 87 | 1014.9 |
| 20260503054255 | 62 | 76 | 0.0 | 0.0 | 0.00 | 0.00 | 0.00 | 86 | 1015.0 |
| 20260503054155 | 62 | 76 | 0.0 | 0.0 | 0.00 | 0.00 | 0.00 | 86 | 1015.0 |
| 20260503054055 | 62 | 76 | 0.0 | 0.0 | 0.00 | 0.00 | 0.00 | 86 | 1015.0 |
| 20260503053955 | 62 | 76 | 0.0 | 0.0 | 0.00 | 0.00 | 0.00 | 86 | 1015.1 |
| 20260503053856 | 62 | 76 | 0.0 | 0.0 | 0.00 | 0.00 | 0.00 | 86 | 1015.0 |
| 20260503053754 | 62 | 76 | 0.0 | 0.0 | 0.00 | 0.00 | 0.00 | 86 | 1015.1 |
| 20260503053656 | 62 | 76 | 0.0 | 0.0 | 0.00 | 0.00 | 0.00 | 86 | 1015.1 |
| 20260503053554 | 62 | 76 | 0.0 | 0.0 | 0.00 | 0.00 | 0.00 | 86 | 1015.1 |
| 20260503053457 | 62 | 76 | 0.0 | 0.0 | 0.00 | 0.00 | 0.00 | 85 | 1015.1 |
| 20260503053356 | 62 | 76 | 0.0 | 0.0 | 0.00 | 0.00 | 0.00 | 85 | 1015.1 |
| 20260503053256 | 62 | 76 | 0.0 | 0.0 | 0.00 | 0.00 | 0.00 | 86 | 1015.1 |
| 20260503053155 | 62 | 76 | 0.0 | 0.0 | 0.00 | 0.00 | 0.00 | 86 | 1015.0 |
| 20260503053056 | 62 | 76 | 0.0 | 0.0 | 0.00 | 0.00 | 0.00 | 86 | 1015.0 |
| 20260503052955 | 62 | 76 | 0.0 | 0.0 | 0.00 | 0.00 | 0.00 | 86 | 1014.9 |
| 20260503052854 | 62 | 76 | 0.0 | 0.0 | 0.00 | 0.00 | 0.00 | 86 | 1014.9 |
| 20260503052754 | 62 | 76 | 0.0 | 0.0 | 0.00 | 0.00 | 0.00 | 86 | 1014.8 |
| 20260503052656 | 62 | 76 | 0.0 | 0.0 | 0.00 | 0.00 | 0.00 | 86 | 1014.9 |
| 20260503052554 | 62 | 76 | 0.0 | 0.0 | 0.00 | 0.00 | 0.00 | 85 | 1014.9 |
| 20260503052455 | 62 | 76 | 0.0 | 0.0 | 0.00 | 0.00 | 0.00 | 85 | 1014.8 |
| 20260503052355 | 62 | 76 | 0.0 | 0.0 | 0.00 | 0.00 | 0.00 | 85 | 1014.8 |
| 20260503052254 | 62 | 76 | 0.0 | 0.0 | 0.00 | 0.00 | 0.00 | 85 | 1014.8 |
| 20260503052155 | 62 | 76 | 0.0 | 0.0 | 0.00 | 0.00 | 0.00 | 85 | 1014.8 |
| 20260503052054 | 62 | 76 | 0.0 | 0.0 | 0.00 | 0.00 | 0.00 | 86 | 1014.8 |
| 20260503051956 | 62 | 76 | 0.0 | 0.0 | 0.00 | 0.00 | 0.00 | 86 | 1014.7 |
| 20260503051854 | 62 | 76 | 0.0 | 0.0 | 0.00 | 0.00 | 0.00 | 86 | 1014.8 |
| 20260503051754 | 62 | 76 | 0.0 | 0.0 | 0.00 | 0.00 | 0.00 | 86 | 1014.8 |
| 20260503051654 | 62 | 76 | 0.0 | 0.0 | 0.00 | 0.00 | 0.00 | 85 | 1014.8 |
| 20260503051555 | 62 | 76 | 0.0 | 0.0 | 0.00 | 0.00 | 0.00 | 85 | 1014.8 |
| 20260503051455 | 62 | 76 | 0.0 | 0.0 | 0.00 | 0.00 | 0.00 | 85 | 1014.8 |
| 20260503051354 | 62 | 76 | 0.0 | 0.0 | 0.00 | 0.00 | 0.00 | 85 | 1014.8 |
| 20260503051253 | 62 | 76 | 0.0 | 0.0 | 0.00 | 0.00 | 0.00 | 85 | 1014.8 |
| 20260503051153 | 63 | 76 | 0.0 | 0.0 | 0.00 | 0.00 | 0.00 | 85 | 1014.8 |
| 20260503051055 | 63 | 76 | 0.0 | 0.0 | 0.00 | 0.00 | 0.00 | 85 | 1014.9 |
| 20260503050955 | 63 | 76 | 0.0 | 0.0 | 0.00 | 0.00 | 0.00 | 85 | 1014.9 |
| 20260503050855 | 63 | 76 | 0.0 | 0.0 | 0.00 | 0.00 | 0.00 | 84 | 1014.8 |
| 20260503050755 | 63 | 76 | 0.0 | 0.0 | 0.00 | 0.00 | 0.00 | 84 | 1014.9 |
| 20260503050655 | 63 | 76 | 0.0 | 0.0 | 0.00 | 0.00 | 0.00 | 84 | 1014.8 |
| 20260503050554 | 63 | 76 | 0.0 | 0.0 | 0.00 | 0.00 | 0.00 | 84 | 1014.9 |
| 20260503050455 | 63 | 76 | 0.0 | 0.0 | 0.00 | 0.00 | 0.00 | 84 | 1014.9 |
| 20260503050354 | 63 | 76 | 0.0 | 0.0 | 0.00 | 0.00 | 0.00 | 84 | 1014.9 |
| 20260503050254 | 63 | 76 | 0.0 | 0.0 | 0.00 | 0.00 | 0.00 | 84 | 1014.8 |
| 20260503050154 | 63 | 76 | 0.0 | 0.0 | 0.00 | 0.00 | 0.00 | 84 | 1014.8 |
| 20260503050053 | 63 | 76 | 0.0 | 0.0 | 0.00 | 0.00 | 0.00 | 84 | 1014.7 |
| 20260503045953 | 63 | 76 | 0.0 | 0.0 | 0.00 | 0.00 | 0.00 | 84 | 1014.7 |
| 20260503045853 | 63 | 76 | 0.0 | 0.0 | 0.00 | 0.00 | 0.00 | 84 | 1014.8 |
| 20260503045756 | 63 | 76 | 0.0 | 0.0 | 0.00 | 0.00 | 0.00 | 83 | 1014.8 |
| 20260503045654 | 63 | 76 | 0.0 | 0.0 | 0.00 | 0.00 | 0.00 | 83 | 1014.9 |
| 20260503045553 | 63 | 76 | 0.0 | 0.0 | 0.00 | 0.00 | 0.00 | 83 | 1014.8 |
| 20260503045455 | 63 | 76 | 0.0 | 0.0 | 0.00 | 0.00 | 0.00 | 83 | 1014.8 |
| 20260503045354 | 64 | 76 | 0.0 | 0.0 | 0.00 | 0.00 | 0.00 | 83 | 1014.8 |
| 20260503045253 | 64 | 76 | 0.0 | 0.0 | 0.00 | 0.00 | 0.00 | 83 | 1014.7 |
| 20260503045155 | 64 | 76 | 0.0 | 0.0 | 0.00 | 0.00 | 0.00 | 83 | 1014.7 |
| 20260503045055 | 64 | 76 | 0.0 | 0.0 | 0.00 | 0.00 | 0.00 | 83 | 1014.7 |
| 20260503044955 | 64 | 76 | 0.0 | 0.0 | 0.00 | 0.00 | 0.00 | 82 | 1014.7 |
| 20260503044853 | 64 | 76 | 0.0 | 0.0 | 0.00 | 0.00 | 0.00 | 81 | 1014.6 |
| 20260503044754 | 64 | 76 | 0.0 | 0.0 | 0.00 | 0.00 | 0.00 | 81 | 1014.7 |
| 20260503044653 | 64 | 76 | 0.0 | 0.0 | 0.00 | 0.00 | 0.00 | 81 | 1014.7 |
| 20260503044554 | 64 | 76 | 0.0 | 0.0 | 0.00 | 0.00 | 0.00 | 81 | 1014.7 |
| 20260503044454 | 64 | 76 | 0.0 | 0.0 | 0.00 | 0.00 | 0.00 | 81 | 1014.8 |
| 20260503044355 | 64 | 76 | 0.0 | 0.0 | 0.00 | 0.00 | 0.00 | 81 | 1014.7 |
| 20260503044254 | 64 | 76 | 0.0 | 0.0 | 0.00 | 0.00 | 0.00 | 81 | 1014.7 |
| 20260503044154 | 64 | 76 | 0.0 | 0.0 | 0.00 | 0.00 | 0.00 | 81 | 1014.7 |
| 20260503044055 | 64 | 76 | 0.0 | 0.0 | 0.00 | 0.00 | 0.00 | 82 | 1014.7 |
| 20260503043952 | 64 | 76 | 0.0 | 0.0 | 0.00 | 0.00 | 0.00 | 82 | 1014.7 |
| 20260503043855 | 64 | 76 | 0.0 | 0.0 | 0.00 | 0.00 | 0.00 | 82 | 1014.8 |
| 20260503043756 | 64 | 76 | 0.0 | 0.0 | 0.00 | 0.00 | 0.00 | 82 | 1014.8 |
| 20260503043654 | 64 | 76 | 0.0 | 0.0 | 0.00 | 0.00 | 0.00 | 82 | 1014.8 |
| 20260503043555 | 64 | 76 | 0.0 | 0.0 | 0.00 | 0.00 | 0.00 | 82 | 1014.7 |
| 20260503043456 | 64 | 76 | 0.0 | 0.0 | 0.00 | 0.00 | 0.00 | 82 | 1014.7 |
| 20260503043353 | 64 | 76 | 0.0 | 0.0 | 0.00 | 0.00 | 0.00 | 82 | 1014.8 |
| 20260503043253 | 64 | 76 | 0.0 | 0.0 | 0.00 | 0.00 | 0.00 | 82 | 1014.7 |
| 20260503043154 | 63 | 76 | 0.0 | 0.0 | 0.00 | 0.00 | 0.00 | 82 | 1014.7 |
| 20260503043054 | 63 | 76 | 0.0 | 0.0 | 0.00 | 0.00 | 0.00 | 82 | 1014.8 |
| 20260503042955 | 63 | 76 | 0.0 | 0.0 | 0.00 | 0.00 | 0.00 | 82 | 1014.7 |
| 20260503042853 | 63 | 76 | 0.0 | 0.0 | 0.00 | 0.00 | 0.00 | 82 | 1014.7 |
| 20260503042754 | 63 | 76 | 0.0 | 0.0 | 0.00 | 0.00 | 0.00 | 82 | 1014.7 |
| 20260503042652 | 63 | 76 | 0.0 | 0.0 | 0.00 | 0.00 | 0.00 | 83 | 1014.7 |
| 20260503042554 | 63 | 76 | 0.0 | 0.0 | 0.00 | 0.00 | 0.00 | 83 | 1014.7 |
| 20260503042453 | 63 | 76 | 0.0 | 0.0 | 0.00 | 0.00 | 0.00 | 83 | 1014.6 |
| 20260503042352 | 63 | 76 | 0.0 | 0.0 | 0.00 | 0.00 | 0.00 | 82 | 1014.7 |
| 20260503042252 | 63 | 76 | 0.0 | 0.0 | 0.00 | 0.00 | 0.00 | 83 | 1014.6 |
| 20260503042154 | 64 | 76 | 0.0 | 0.0 | 0.00 | 0.00 | 0.00 | 83 | 1014.6 |
| 20260503042054 | 64 | 76 | 0.0 | 0.0 | 0.00 | 0.00 | 0.00 | 83 | 1014.5 |
| 20260503041954 | 64 | 76 | 0.0 | 0.0 | 0.00 | 0.00 | 0.00 | 83 | 1014.6 |
| 20260503041854 | 64 | 76 | 0.0 | 0.0 | 0.00 | 0.00 | 0.00 | 83 | 1014.7 |
| 20260503041753 | 64 | 76 | 0.0 | 0.0 | 0.00 | 0.00 | 0.00 | 83 | 1014.6 |
| 20260503041653 | 64 | 76 | 0.0 | 0.0 | 0.00 | 0.00 | 0.00 | 83 | 1014.6 |
| 20260503041552 | 64 | 76 | 0.0 | 0.0 | 0.00 | 0.00 | 0.00 | 83 | 1014.6 |
| 20260503041453 | 64 | 76 | 0.0 | 0.0 | 0.00 | 0.00 | 0.00 | 83 | 1014.6 |
| 20260503041352 | 64 | 76 | 0.0 | 0.0 | 0.00 | 0.00 | 0.00 | 83 | 1014.6 |
| 20260503041252 | 64 | 76 | 0.0 | 0.0 | 0.00 | 0.00 | 0.00 | 83 | 1014.6 |
| 20260503041153 | 64 | 76 | 0.0 | 0.0 | 0.00 | 0.00 | 0.00 | 82 | 1014.6 |
| 20260503041053 | 65 | 76 | 0.0 | 0.0 | 0.00 | 0.00 | 0.00 | 82 | 1014.6 |
| 20260503040952 | 65 | 76 | 0.0 | 0.0 | 0.00 | 0.00 | 0.00 | 81 | 1014.6 |
| 20260503040852 | 65 | 76 | 0.0 | 0.0 | 0.00 | 0.00 | 0.00 | 81 | 1014.6 |
| 20260503040752 | 65 | 76 | 0.0 | 0.0 | 0.00 | 0.00 | 0.00 | 81 | 1014.6 |
| 20260503040653 | 65 | 76 | 0.0 | 0.0 | 0.00 | 0.00 | 0.00 | 81 | 1014.7 |
| 20260503040552 | 65 | 76 | 0.0 | 0.0 | 0.00 | 0.00 | 0.00 | 80 | 1014.6 |
| 20260503040453 | 65 | 76 | 0.0 | 0.0 | 0.00 | 0.00 | 0.00 | 81 | 1014.7 |
| 20260503040354 | 65 | 76 | 0.0 | 0.0 | 0.00 | 0.00 | 0.00 | 80 | 1014.7 |
| 20260503040253 | 65 | 76 | 0.0 | 0.0 | 0.00 | 0.00 | 0.00 | 80 | 1014.7 |
| 20260503040153 | 65 | 76 | 0.0 | 0.0 | 0.00 | 0.00 | 0.00 | 80 | 1014.7 |
| 20260503040052 | 65 | 76 | 0.0 | 0.0 | 0.00 | 0.00 | 0.00 | 80 | 1014.7 |
| 20260503035954 | 65 | 76 | 0.0 | 0.0 | 0.00 | 0.00 | 0.00 | 80 | 1014.7 |
| 20260503035851 | 65 | 76 | 0.0 | 0.0 | 0.00 | 0.00 | 0.00 | 80 | 1014.8 |
| 20260503035753 | 65 | 76 | 0.0 | 0.0 | 0.00 | 0.00 | 0.00 | 80 | 1014.9 |
| 20260503035654 | 65 | 76 | 0.0 | 0.0 | 0.00 | 0.00 | 0.00 | 80 | 1014.8 |
| 20260503035555 | 65 | 76 | 0.0 | 0.0 | 0.00 | 0.00 | 0.00 | 80 | 1014.8 |
| 20260503035453 | 65 | 76 | 0.0 | 0.0 | 0.00 | 0.00 | 0.00 | 80 | 1014.8 |
| 20260503035353 | 65 | 76 | 0.0 | 0.0 | 0.00 | 0.00 | 0.00 | 79 | 1014.8 |
| 20260503035254 | 65 | 76 | 0.0 | 0.0 | 0.00 | 0.00 | 0.00 | 79 | 1014.7 |
| 20260503035152 | 65 | 76 | 0.0 | 0.0 | 0.00 | 0.00 | 0.00 | 79 | 1014.7 |
| 20260503035053 | 65 | 76 | 0.0 | 0.0 | 0.00 | 0.00 | 0.00 | 79 | 1014.6 |
| 20260503034953 | 64 | 76 | 0.0 | 0.0 | 0.00 | 0.00 | 0.00 | 79 | 1014.6 |
| 20260503034852 | 64 | 76 | 0.0 | 0.0 | 0.00 | 0.00 | 0.00 | 80 | 1014.5 |
| 20260503034753 | 64 | 76 | 0.0 | 0.0 | 0.00 | 0.00 | 0.00 | 80 | 1014.5 |
| 20260503034651 | 64 | 76 | 0.0 | 0.0 | 0.00 | 0.00 | 0.00 | 80 | 1014.6 |
| 20260503034551 | 64 | 76 | 0.0 | 0.0 | 0.00 | 0.00 | 0.00 | 80 | 1014.6 |
| 20260503034453 | 64 | 76 | 0.0 | 0.0 | 0.00 | 0.00 | 0.00 | 80 | 1014.5 |
| 20260503034355 | 64 | 76 | 0.0 | 0.0 | 0.00 | 0.00 | 0.00 | 80 | 1014.5 |
| 20260503034253 | 64 | 76 | 0.0 | 0.0 | 0.00 | 0.00 | 0.00 | 80 | 1014.5 |
| 20260503034154 | 64 | 76 | 0.0 | 0.0 | 0.00 | 0.00 | 0.00 | 81 | 1014.5 |
| 20260503034052 | 64 | 76 | 0.0 | 0.0 | 0.00 | 0.00 | 0.00 | 81 | 1014.5 |
| 20260503033953 | 64 | 76 | 0.0 | 0.0 | 0.00 | 0.00 | 0.00 | 81 | 1014.5 |
| 20260503033851 | 64 | 76 | 0.0 | 0.0 | 0.00 | 0.00 | 0.00 | 80 | 1014.5 |
| 20260503033751 | 64 | 76 | 0.0 | 0.0 | 0.00 | 0.00 | 0.00 | 80 | 1014.5 |
| 20260503033652 | 64 | 76 | 0.0 | 0.0 | 0.00 | 0.00 | 0.00 | 79 | 1014.5 |
| 20260503033553 | 64 | 76 | 0.0 | 0.0 | 0.00 | 0.00 | 0.00 | 79 | 1014.4 |
| 20260503033453 | 64 | 76 | 0.0 | 0.0 | 0.00 | 0.00 | 0.00 | 79 | 1014.5 |
| 20260503033351 | 65 | 76 | 0.0 | 0.0 | 0.00 | 0.00 | 0.00 | 79 | 1014.5 |
| 20260503033253 | 65 | 76 | 0.0 | 0.0 | 0.00 | 0.00 | 0.00 | 79 | 1014.5 |
| 20260503033153 | 65 | 76 | 0.0 | 1.0 | 0.00 | 0.00 | 0.00 | 78 | 1014.5 |
| 20260503033052 | 65 | 76 | 0.0 | 2.0 | 0.00 | 0.00 | 0.00 | 78 | 1014.5 |
| 20260503032953 | 65 | 76 | 0.0 | 2.0 | 0.00 | 0.00 | 0.00 | 78 | 1014.4 |
| 20260503032851 | 65 | 76 | 0.0 | 2.0 | 0.00 | 0.00 | 0.00 | 78 | 1014.4 |
| 20260503032753 | 65 | 76 | 0.0 | 2.0 | 0.00 | 0.00 | 0.00 | 78 | 1014.4 |
| 20260503032652 | 65 | 76 | 0.0 | 2.0 | 0.00 | 0.00 | 0.00 | 78 | 1014.4 |
| 20260503032551 | 65 | 76 | 0.0 | 3.0 | 0.00 | 0.00 | 0.00 | 79 | 1014.4 |
| 20260503032453 | 65 | 76 | 0.0 | 3.0 | 0.00 | 0.00 | 0.00 | 79 | 1014.4 |
| 20260503032353 | 64 | 76 | 0.0 | 3.0 | 0.00 | 0.00 | 0.00 | 79 | 1014.3 |
| 20260503032255 | 65 | 76 | 1.0 | 3.0 | 0.00 | 0.00 | 0.00 | 79 | 1014.3 |
| 20260503032153 | 65 | 76 | 1.0 | 3.0 | 0.00 | 0.00 | 0.00 | 79 | 1014.2 |
| 20260503032053 | 64 | 76 | 0.0 | 3.0 | 0.00 | 0.00 | 0.00 | 80 | 1014.2 |
| 20260503031952 | 65 | 76 | 0.0 | 3.0 | 0.00 | 0.00 | 0.00 | 80 | 1014.2 |
| 20260503031851 | 64 | 76 | 1.0 | 3.0 | 0.00 | 0.00 | 0.00 | 80 | 1014.2 |
| 20260503031752 | 65 | 76 | 2.0 | 3.0 | 0.00 | 0.00 | 0.00 | 80 | 1014.1 |
| 20260503031652 | 65 | 76 | 1.0 | 3.0 | 0.00 | 0.00 | 0.00 | 80 | 1014.2 |
| 20260503031552 | 65 | 75 | 0.0 | 3.0 | 0.00 | 0.00 | 0.00 | 80 | 1014.2 |
| 20260503031452 | 65 | 34 | 0.0 | 0.0 | 0.00 | 0.00 | 0.00 | 80 | 1014.2 |
| 20260503031352 | 65 | 16 | 0.0 | 0.0 | 0.00 | 0.00 | 0.00 | 80 | 1014.2 |
| 20260503031252 | 65 | 16 | 0.0 | 0.0 | 0.00 | 0.00 | 0.00 | 80 | 1014.2 |
| 20260503031151 | 65 | 16 | 0.0 | 0.0 | 0.00 | 0.00 | 0.00 | 80 | 1014.1 |
| 20260503031052 | 66 | 16 | 0.0 | 0.0 | 0.00 | 0.00 | 0.00 | 80 | 1014.0 |
| 20260503030951 | 66 | 16 | 0.0 | 0.0 | 0.00 | 0.00 | 0.00 | 80 | 1014.1 |
| 20260503030851 | 66 | 16 | 0.0 | 0.0 | 0.00 | 0.00 | 0.00 | 80 | 1014.0 |
| 20260503030752 | 66 | 16 | 0.0 | 0.0 | 0.00 | 0.00 | 0.00 | 78 | 1014.1 |
| 20260503030652 | 66 | 16 | 0.0 | 0.0 | 0.00 | 0.00 | 0.00 | 77 | 1014.0 |
| 20260503030553 | 66 | 16 | 0.0 | 0.0 | 0.00 | 0.00 | 0.00 | 77 | 1014.0 |
| 20260503030452 | 66 | 16 | 0.0 | 0.0 | 0.00 | 0.00 | 0.00 | 77 | 1013.9 |
| 20260503030352 | 66 | 16 | 0.0 | 0.0 | 0.00 | 0.00 | 0.00 | 77 | 1014.0 |
| 20260503030249 | 66 | 16 | 0.0 | 0.0 | 0.00 | 0.00 | 0.00 | 77 | 1014.0 |
| 20260503030148 | 66 | 16 | 0.0 | 1.0 | 0.00 | 0.00 | 0.00 | 78 | 1014.0 |
| 20260503030036 | 66 | 16 | 0.0 | 1.0 | 0.00 | 0.00 | 0.00 | 78 | 1014.0 |
| 20260503025933 | 66 | 16 | 0.0 | 1.0 | 0.00 | 0.00 | 0.00 | 78 | 1014.1 |
| 20260503025835 | 66 | 16 | 0.0 | 1.0 | 0.00 | 0.00 | 0.00 | 79 | 1014.0 |
| 20260503025732 | 66 | 16 | 0.0 | 1.0 | 0.00 | 0.00 | 0.00 | 78 | 1014.0 |
| 20260503025632 | 66 | 16 | 0.0 | 1.0 | 0.00 | 0.00 | 0.00 | 77 | 1014.1 |
| 20260503025532 | 67 | 16 | 0.0 | 1.0 | 0.00 | 0.00 | 0.00 | 77 | 1014.0 |
| 20260503025432 | 67 | 16 | 0.0 | 1.0 | 0.00 | 0.00 | 0.00 | 77 | 1014.1 |
| 20260503025333 | 67 | 16 | 0.0 | 1.0 | 0.00 | 0.00 | 0.00 | 78 | 1014.1 |
| 20260503025231 | 67 | 16 | 0.0 | 1.0 | 0.00 | 0.00 | 0.00 | 77 | 1014.1 |
| 20260503025132 | 67 | 16 | 0.0 | 1.0 | 0.00 | 0.00 | 0.00 | 76 | 1014.1 |
| 20260503025032 | 67 | 16 | 0.0 | 1.0 | 0.00 | 0.00 | 0.00 | 76 | 1014.0 |
| 20260503024932 | 67 | 16 | 0.0 | 0.0 | 0.00 | 0.00 | 0.00 | 76 | 1014.0 |
| 20260503024832 | 67 | 16 | 0.0 | 0.0 | 0.00 | 0.00 | 0.00 | 75 | 1014.0 |
| 20260503024728 | 67 | 16 | 0.0 | 0.0 | 0.00 | 0.00 | 0.00 | 75 | 1014.0 |
| 20260503024621 | 67 | 16 | 0.0 | 0.0 | 0.00 | 0.00 | 0.00 | 75 | 1014.1 |
| 20260503024512 | 67 | 16 | 0.0 | 0.0 | 0.00 | 0.00 | 0.00 | 75 | 1014.0 |
| 20260503024404 | 67 | 16 | 0.0 | 1.0 | 0.00 | 0.00 | 0.00 | 75 | 1014.1 |
| 20260503024303 | 67 | 16 | 0.0 | 1.0 | 0.00 | 0.00 | 0.00 | 75 | 1014.1 |
| 20260503024204 | 67 | 16 | 0.0 | 1.0 | 0.00 | 0.00 | 0.00 | 75 | 1014.0 |
| 20260503024103 | 67 | 16 | 0.0 | 1.0 | 0.00 | 0.00 | 0.00 | 75 | 1014.0 |
| 20260503024003 | 67 | 16 | 0.0 | 1.0 | 0.00 | 0.00 | 0.00 | 75 | 1014.0 |
| 20260503023903 | 67 | 16 | 0.0 | 1.0 | 0.00 | 0.00 | 0.00 | 75 | 1014.0 |
| 20260503023802 | 67 | 16 | 0.0 | 1.0 | 0.00 | 0.00 | 0.00 | 75 | 1014.0 |
| 20260503023705 | 66 | 16 | 0.0 | 1.0 | 0.00 | 0.00 | 0.00 | 75 | 1014.0 |
| 20260503023604 | 66 | 16 | 0.0 | 1.0 | 0.00 | 0.00 | 0.00 | 75 | 1014.0 |
| 20260503023502 | 66 | 16 | 0.0 | 1.0 | 0.00 | 0.00 | 0.00 | 75 | 1013.9 |
| 20260503023403 | 66 | 16 | 0.0 | 0.0 | 0.00 | 0.00 | 0.00 | 75 | 1013.9 |
| 20260503023304 | 67 | 16 | 0.0 | 0.0 | 0.00 | 0.00 | 0.00 | 76 | 1013.9 |
| 20260503023202 | 67 | 16 | 0.0 | 0.0 | 0.00 | 0.00 | 0.00 | 76 | 1013.9 |
| 20260503023104 | 67 | 16 | 0.0 | 0.0 | 0.00 | 0.00 | 0.00 | 77 | 1013.9 |
| 20260503023004 | 67 | 16 | 0.0 | 0.0 | 0.00 | 0.00 | 0.00 | 77 | 1013.9 |
| 20260503022903 | 67 | 16 | 0.0 | 0.0 | 0.00 | 0.00 | 0.00 | 77 | 1013.9 |
| 20260503022803 | 67 | 16 | 0.0 | 0.0 | 0.00 | 0.00 | 0.00 | 77 | 1013.9 |
| 20260503022702 | 67 | 16 | 0.0 | 0.0 | 0.00 | 0.00 | 0.00 | 77 | 1013.8 |
| 20260503022603 | 67 | 16 | 0.0 | 0.0 | 0.00 | 0.00 | 0.00 | 76 | 1013.8 |
| 20260503022502 | 67 | 16 | 0.0 | 0.0 | 0.00 | 0.00 | 0.00 | 76 | 1013.8 |
| 20260503022404 | 67 | 16 | 0.0 | 0.0 | 0.00 | 0.00 | 0.00 | 76 | 1013.9 |
| 20260503022304 | 67 | 16 | 0.0 | 0.0 | 0.00 | 0.00 | 0.00 | 76 | 1013.8 |
| 20260503022205 | 67 | 16 | 0.0 | 0.0 | 0.00 | 0.00 | 0.00 | 76 | 1013.8 |
| 20260503022102 | 67 | 16 | 0.0 | 0.0 | 0.00 | 0.00 | 0.00 | 76 | 1013.8 |
| 20260503022002 | 67 | 16 | 0.0 | 0.0 | 0.00 | 0.00 | 0.00 | 76 | 1013.9 |
| 20260503021904 | 67 | 16 | 0.0 | 0.0 | 0.00 | 0.00 | 0.00 | 75 | 1013.9 |
| 20260503021804 | 67 | 16 | 0.0 | 0.0 | 0.00 | 0.00 | 0.00 | 75 | 1013.9 |
| 20260503021704 | 67 | 16 | 0.0 | 0.0 | 0.00 | 0.00 | 0.00 | 75 | 1013.9 |
| 20260503021604 | 67 | 16 | 0.0 | 0.0 | 0.00 | 0.00 | 0.00 | 75 | 1013.9 |
| 20260503021501 | 67 | 16 | 0.0 | 0.0 | 0.00 | 0.00 | 0.00 | 75 | 1013.9 |
| 20260503021404 | 67 | 16 | 0.0 | 0.0 | 0.00 | 0.00 | 0.00 | 75 | 1013.8 |
| 20260503021303 | 67 | 16 | 0.0 | 0.0 | 0.00 | 0.00 | 0.00 | 75 | 1013.8 |
| 20260503021203 | 67 | 16 | 0.0 | 0.0 | 0.00 | 0.00 | 0.00 | 74 | 1013.8 |
| 20260503021104 | 67 | 16 | 0.0 | 0.0 | 0.00 | 0.01 | 0.00 | 74 | 1013.8 |
| 20260503021006 | 67 | 16 | 0.0 | 0.0 | 0.00 | 0.01 | 0.00 | 74 | 1013.7 |
| 20260503020902 | 67 | 16 | 0.0 | 0.0 | 0.00 | 0.01 | 0.00 | 74 | 1013.7 |
| 20260503020802 | 67 | 16 | 0.0 | 0.0 | 0.00 | 0.01 | 0.00 | 73 | 1013.7 |
| 20260503020703 | 67 | 16 | 0.0 | 0.0 | 0.00 | 0.01 | 0.00 | 73 | 1013.6 |
| 20260503020602 | 67 | 16 | 0.0 | 0.0 | 0.00 | 0.01 | 0.00 | 73 | 1013.6 |
| 20260503020505 | 68 | 16 | 0.0 | 0.0 | 0.00 | 0.01 | 0.00 | 73 | 1013.5 |
| 20260503020405 | 68 | 16 | 0.0 | 0.0 | 0.00 | 0.01 | 0.00 | 72 | 1013.5 |
| 20260503020303 | 68 | 16 | 0.0 | 0.0 | 0.00 | 0.01 | 0.00 | 72 | 1013.6 |
| 20260503020203 | 68 | 16 | 0.0 | 0.0 | 0.00 | 0.01 | 0.00 | 70 | 1013.6 |
| 20260503020004 | 68 | 16 | 0.0 | 0.0 | 0.00 | 0.01 | 0.00 | 69 | 1013.6 |
| 20260503015902 | 68 | 16 | 0.0 | 0.0 | 0.00 | 0.01 | 0.00 | 69 | 1013.6 |
| 20260503015801 | 68 | 16 | 0.0 | 0.0 | 0.00 | 0.01 | 0.00 | 69 | 1013.6 |
| 20260503015701 | 68 | 16 | 0.0 | 0.0 | 0.00 | 0.01 | 0.00 | 68 | 1013.6 |
| 20260503015603 | 68 | 16 | 0.0 | 0.0 | 0.00 | 0.01 | 0.00 | 68 | 1013.7 |
| 20260503015504 | 68 | 16 | 0.0 | 0.0 | 0.00 | 0.01 | 0.00 | 68 | 1013.6 |
| 20260503015403 | 68 | 16 | 0.0 | 0.0 | 0.00 | 0.01 | 0.00 | 68 | 1013.6 |
| 20260503015305 | 68 | 16 | 0.0 | 0.0 | 0.00 | 0.01 | 0.00 | 67 | 1013.7 |
| 20260503015203 | 68 | 16 | 0.0 | 0.0 | 0.00 | 0.01 | 0.00 | 66 | 1013.7 |
| 20260503015104 | 69 | 16 | 0.0 | 0.0 | 0.00 | 0.01 | 0.00 | 66 | 1013.7 |
| 20260503015003 | 69 | 16 | 0.0 | 0.0 | 0.00 | 0.01 | 0.00 | 66 | 1013.6 |
| 20260503014902 | 69 | 16 | 0.0 | 0.0 | 0.00 | 0.01 | 0.00 | 66 | 1013.6 |
| 20260503014803 | 69 | 16 | 0.0 | 0.0 | 0.00 | 0.01 | 0.00 | 66 | 1013.6 |
| 20260503014703 | 69 | 16 | 0.0 | 1.0 | 0.00 | 0.01 | 0.00 | 66 | 1013.6 |
| 20260503014603 | 69 | 16 | 0.0 | 1.0 | 0.00 | 0.01 | 0.00 | 65 | 1013.5 |
| 20260503014503 | 69 | 16 | 0.0 | 1.0 | 0.00 | 0.01 | 0.00 | 65 | 1013.5 |
| 20260503014402 | 70 | 16 | 0.0 | 2.0 | 0.00 | 0.01 | 0.00 | 65 | 1013.5 |
| 20260503014304 | 70 | 16 | 0.0 | 2.0 | 0.00 | 0.01 | 0.00 | 65 | 1013.5 |
| 20260503014202 | 70 | 16 | 0.0 | 2.0 | 0.00 | 0.01 | 0.00 | 64 | 1013.5 |
| 20260503014103 | 70 | 16 | 0.0 | 2.0 | 0.00 | 0.01 | 0.00 | 64 | 1013.4 |
| 20260503014002 | 70 | 16 | 0.0 | 2.0 | 0.00 | 0.01 | 0.00 | 63 | 1013.4 |
| 20260503013903 | 70 | 16 | 0.0 | 2.0 | 0.00 | 0.01 | 0.00 | 63 | 1013.4 |
| 20260503013802 | 70 | 16 | 1.0 | 2.0 | 0.00 | 0.01 | 0.00 | 62 | 1013.3 |
| 20260503013703 | 70 | 16 | 1.0 | 3.0 | 0.00 | 0.01 | 0.00 | 63 | 1013.3 |
| 20260503013602 | 70 | 16 | 1.0 | 3.0 | 0.00 | 0.01 | 0.00 | 63 | 1013.3 |
| 20260503013504 | 70 | 16 | 1.0 | 3.0 | 0.00 | 0.01 | 0.00 | 62 | 1013.3 |
| 20260503013403 | 70 | 16 | 2.0 | 3.0 | 0.00 | 0.01 | 0.00 | 62 | 1013.2 |
| 20260503013304 | 70 | 16 | 2.0 | 3.0 | 0.00 | 0.01 | 0.00 | 62 | 1013.3 |
| 20260503013203 | 70 | 16 | 2.0 | 3.0 | 0.00 | 0.01 | 0.00 | 62 | 1013.3 |
| 20260503013103 | 70 | 16 | 2.0 | 3.0 | 0.00 | 0.02 | 0.00 | 62 | 1013.3 |
| 20260503013003 | 70 | 16 | 2.0 | 3.0 | 0.00 | 0.02 | 0.00 | 62 | 1013.3 |
| 20260503012905 | 70 | 16 | 2.0 | 3.0 | 0.00 | 0.02 | 0.00 | 62 | 1013.3 |
| 20260503012802 | 70 | 16 | 2.0 | 3.0 | 0.00 | 0.02 | 0.00 | 62 | 1013.3 |
| 20260503012703 | 70 | 16 | 2.0 | 3.0 | 0.00 | 0.02 | 0.00 | 62 | 1013.2 |
| 20260503012604 | 70 | 16 | 2.0 | 3.0 | 0.00 | 0.02 | 0.00 | 62 | 1013.2 |
| 20260503012502 | 70 | 16 | 2.0 | 3.0 | 0.00 | 0.02 | 0.00 | 61 | 1013.3 |
| 20260503012403 | 70 | 16 | 2.0 | 3.0 | 0.00 | 0.02 | 0.00 | 61 | 1013.2 |
| 20260503012305 | 70 | 16 | 2.0 | 3.0 | 0.00 | 0.02 | 0.00 | 61 | 1013.2 |
| 20260503012204 | 70 | 16 | 2.0 | 3.0 | 0.00 | 0.02 | 0.00 | 61 | 1013.2 |
| 20260503012103 | 70 | 16 | 2.0 | 2.0 | 0.00 | 0.02 | 0.00 | 61 | 1013.2 |
| 20260503012003 | 70 | 16 | 2.0 | 2.0 | 0.00 | 0.02 | 0.00 | 61 | 1013.2 |
| 20260503011904 | 70 | 16 | 2.0 | 2.0 | 0.00 | 0.02 | 0.00 | 61 | 1013.2 |
| 20260503011803 | 71 | 16 | 2.0 | 3.0 | 0.00 | 0.02 | 0.00 | 61 | 1013.2 |
| 20260503011704 | 71 | 16 | 2.0 | 3.0 | 0.00 | 0.02 | 0.00 | 61 | 1013.1 |
| 20260503011604 | 71 | 16 | 2.0 | 3.0 | 0.00 | 0.02 | 0.00 | 61 | 1013.2 |
| 20260503011503 | 71 | 16 | 2.0 | 3.0 | 0.00 | 0.02 | 0.00 | 61 | 1013.1 |
| 20260503011404 | 71 | 16 | 2.0 | 3.0 | 0.00 | 0.02 | 0.00 | 61 | 1013.2 |
| 20260503011302 | 71 | 16 | 2.0 | 3.0 | 0.00 | 0.02 | 0.00 | 61 | 1013.2 |
| 20260503011204 | 71 | 16 | 2.0 | 3.0 | 0.00 | 0.02 | 0.00 | 61 | 1013.2 |
| 20260503011103 | 71 | 16 | 2.0 | 3.0 | 0.00 | 0.02 | 0.00 | 61 | 1013.1 |
| 20260503011003 | 71 | 16 | 2.0 | 3.0 | 0.00 | 0.02 | 0.00 | 61 | 1013.0 |
| 20260503010903 | 71 | 16 | 2.0 | 3.0 | 0.00 | 0.02 | 0.00 | 63 | 1013.1 |
| 20260503010802 | 71 | 16 | 1.0 | 3.0 | 0.00 | 0.02 | 0.00 | 63 | 1013.0 |
| 20260503010703 | 71 | 17 | 1.0 | 3.0 | 0.00 | 0.02 | 0.00 | 63 | 1013.1 |
| 20260503010603 | 71 | 17 | 1.0 | 3.0 | 0.00 | 0.02 | 0.00 | 63 | 1012.9 |
| 20260503010502 | 71 | 17 | 2.0 | 3.0 | 0.00 | 0.02 | 0.00 | 61 | 1013.0 |
| 20260503010402 | 71 | 16 | 2.0 | 3.0 | 0.00 | 0.02 | 0.00 | 61 | 1013.0 |
| 20260503010303 | 71 | 17 | 2.0 | 3.0 | 0.00 | 0.02 | 0.00 | 62 | 1013.0 |
| 20260503010203 | 71 | 18 | 2.0 | 3.0 | 0.00 | 0.03 | 0.00 | 62 | 1013.1 |
| 20260503010003 | 71 | 18 | 1.0 | 3.0 | 0.00 | 0.03 | 0.00 | 61 | 1013.0 |
| 20260503005904 | 71 | 18 | 2.0 | 3.0 | 0.00 | 0.03 | 0.00 | 61 | 1013.0 |
| 20260503005802 | 71 | 18 | 2.0 | 3.0 | 0.00 | 0.03 | 0.00 | 61 | 1013.1 |
| 20260503005704 | 71 | 18 | 2.0 | 3.0 | 0.00 | 0.03 | 0.00 | 61 | 1013.1 |
| 20260503005603 | 71 | 18 | 2.0 | 3.0 | 0.00 | 0.03 | 0.00 | 61 | 1013.0 |
| 20260503005502 | 72 | 18 | 2.0 | 3.0 | 0.00 | 0.03 | 0.00 | 60 | 1013.1 |
| 20260503005403 | 72 | 18 | 2.0 | 4.0 | 0.00 | 0.03 | 0.00 | 61 | 1013.0 |
| 20260503005304 | 72 | 18 | 2.0 | 4.0 | 0.00 | 0.03 | 0.00 | 61 | 1013.0 |
| 20260503005205 | 72 | 18 | 2.0 | 4.0 | 0.00 | 0.03 | 0.00 | 61 | 1012.9 |
| 20260503005103 | 72 | 18 | 1.0 | 4.0 | 0.00 | 0.03 | 0.00 | 61 | 1013.0 |
| 20260503005002 | 72 | 18 | 1.0 | 4.0 | 0.00 | 0.03 | 0.00 | 61 | 1013.0 |
| 20260503004901 | 72 | 18 | 2.0 | 5.0 | 0.00 | 0.03 | 0.00 | 59 | 1013.0 |
| 20260503004804 | 72 | 18 | 2.0 | 5.0 | 0.00 | 0.03 | 0.00 | 60 | 1013.0 |
| 20260503004702 | 72 | 0 | 2.0 | 5.0 | 0.00 | 0.03 | 0.00 | 60 | 1012.9 |
| 20260503004602 | 72 | 0 | 2.0 | 5.0 | 0.00 | 0.03 | 0.00 | 58 | 1012.9 |
| 20260503004504 | 72 | 0 | 2.0 | 5.0 | 0.00 | 0.03 | 0.00 | 58 | 1012.9 |
| 20260503004404 | 72 | 0 | 3.0 | 5.0 | 0.00 | 0.03 | 0.00 | 59 | 1012.9 |
| 20260503004303 | 73 | 0 | 3.0 | 5.0 | 0.00 | 0.03 | 0.00 | 57 | 1012.9 |
| 20260503004202 | 73 | 0 | 3.0 | 5.0 | 0.00 | 0.03 | 0.00 | 58 | 1012.9 |
| 20260503004103 | 73 | 0 | 4.0 | 5.0 | 0.00 | 0.03 | 0.00 | 58 | 1012.8 |
| 20260503004004 | 73 | 358 | 4.0 | 5.0 | 0.00 | 0.03 | 0.00 | 58 | 1012.8 |
| 20260503003902 | 73 | 0 | 3.0 | 6.0 | 0.00 | 0.03 | 0.00 | 58 | 1012.8 |
| 20260503003802 | 73 | 0 | 4.0 | 6.0 | 0.00 | 0.03 | 0.00 | 57 | 1012.7 |
| 20260503003701 | 73 | 0 | 4.0 | 6.0 | 0.00 | 0.03 | 0.00 | 57 | 1012.7 |
| 20260503003603 | 73 | 0 | 4.0 | 6.0 | 0.00 | 0.03 | 0.00 | 57 | 1012.7 |
| 20260503003504 | 73 | 0 | 3.0 | 6.0 | 0.00 | 0.03 | 0.00 | 57 | 1012.7 |
| 20260503003402 | 73 | 357 | 3.0 | 6.0 | 0.00 | 0.03 | 0.00 | 57 | 1012.6 |
| 20260503003302 | 73 | 0 | 4.0 | 7.0 | 0.00 | 0.03 | 0.00 | 56 | 1012.6 |
| 20260503003203 | 73 | 348 | 4.0 | 7.0 | 0.00 | 0.03 | 0.00 | 56 | 1012.6 |
| 20260503003103 | 73 | 333 | 5.0 | 7.0 | 0.00 | 0.03 | 0.00 | 55 | 1012.6 |
| 20260503003003 | 73 | 355 | 5.0 | 7.0 | 0.00 | 0.03 | 0.00 | 55 | 1012.7 |
| 20260503002902 | 73 | 358 | 4.0 | 10.0 | 0.00 | 0.03 | 0.00 | 55 | 1012.6 |
| 20260503002804 | 73 | 350 | 4.0 | 10.0 | 0.00 | 0.03 | 0.00 | 56 | 1012.6 |
| 20260503002703 | 73 | 0 | 4.0 | 10.0 | 0.00 | 0.03 | 0.00 | 55 | 1012.6 |
| 20260503002604 | 73 | 0 | 4.0 | 10.0 | 0.00 | 0.03 | 0.00 | 55 | 1012.6 |
| 20260503002503 | 73 | 17 | 5.0 | 10.0 | 0.00 | 0.03 | 0.00 | 55 | 1012.6 |
| 20260503002403 | 73 | 0 | 5.0 | 10.0 | 0.00 | 0.03 | 0.00 | 55 | 1012.6 |
| 20260503002305 | 73 | 8 | 4.0 | 10.0 | 0.00 | 0.03 | 0.00 | 56 | 1012.6 |
| 20260503002202 | 73 | 1 | 5.0 | 10.0 | 0.00 | 0.03 | 0.00 | 55 | 1012.6 |
| 20260503002103 | 73 | 357 | 7.0 | 10.0 | 0.00 | 0.03 | 0.00 | 54 | 1012.6 |
| 20260503002003 | 73 | 358 | 7.0 | 10.0 | 0.00 | 0.04 | 0.00 | 54 | 1012.6 |
| 20260503001903 | 73 | 347 | 6.0 | 9.0 | 0.00 | 0.04 | 0.00 | 55 | 1012.6 |
| 20260503001805 | 74 | 340 | 5.0 | 9.0 | 0.00 | 0.04 | 0.00 | 55 | 1012.6 |
| 20260503001705 | 74 | 354 | 5.0 | 9.0 | 0.00 | 0.04 | 0.00 | 54 | 1012.6 |
| 20260503001603 | 74 | 333 | 5.0 | 9.0 | 0.00 | 0.04 | 0.00 | 55 | 1012.5 |
| 20260503001504 | 74 | 8 | 6.0 | 9.0 | 0.00 | 0.04 | 0.00 | 55 | 1012.6 |
| 20260503001404 | 74 | 350 | 6.0 | 11.0 | 0.00 | 0.04 | 0.00 | 55 | 1012.6 |
| 20260503001302 | 74 | 0 | 4.0 | 11.0 | 0.00 | 0.04 | 0.00 | 55 | 1012.6 |
| 20260503001204 | 74 | 0 | 4.0 | 11.0 | 0.00 | 0.04 | 0.00 | 56 | 1012.6 |
| 20260503001103 | 74 | 338 | 4.0 | 11.0 | 0.00 | 0.04 | 0.00 | 55 | 1012.6 |
| 20260503001002 | 74 | 20 | 4.0 | 11.0 | 0.00 | 0.04 | 0.00 | 54 | 1012.6 |
| 20260503000901 | 74 | 1 | 5.0 | 11.0 | 0.00 | 0.04 | 0.00 | 53 | 1012.6 |
| 20260503000804 | 74 | 18 | 4.0 | 11.0 | 0.00 | 0.04 | 0.00 | 54 | 1012.6 |
| 20260503000703 | 74 | 17 | 4.0 | 11.0 | 0.00 | 0.04 | 0.00 | 54 | 1012.5 |
| 20260503000604 | 74 | 10 | 6.0 | 11.0 | 0.00 | 0.04 | 0.00 | 53 | 1012.6 |
| 20260503000503 | 74 | 351 | 6.0 | 11.0 | 0.00 | 0.04 | 0.00 | 54 | 1012.6 |
| 20260503000403 | 74 | 355 | 6.0 | 11.0 | 0.00 | 0.04 | 0.00 | 53 | 1012.5 |
| 20260503000303 | 74 | 4 | 6.0 | 11.0 | 0.00 | 0.04 | 0.00 | 53 | 1012.5 |
| 20260503000204 | 74 | 0 | 6.0 | 11.0 | 0.00 | 0.04 | 0.00 | 54 | 1012.5 |
| 20260503000003 | 74 | 357 | 6.0 | 11.0 | 0.00 | 0.04 | 0.00 | 54 | 1012.4 |
| 20260502235903 | 74 | 347 | 5.0 | 11.0 | 0.00 | 0.04 | 0.00 | 54 | 1012.5 |
| 20260502235802 | 74 | 358 | 5.0 | 11.0 | 0.00 | 0.04 | 0.00 | 54 | 1012.4 |
| 20260502235702 | 74 | 351 | 5.0 | 11.0 | 0.00 | 0.04 | 0.00 | 55 | 1012.5 |
| 20260502235603 | 74 | 0 | 7.0 | 11.0 | 0.00 | 0.04 | 0.00 | 53 | 1012.5 |
| 20260502235503 | 74 | 347 | 7.0 | 11.0 | 0.00 | 0.04 | 0.00 | 53 | 1012.5 |
| 20260502235404 | 74 | 331 | 5.0 | 10.0 | 0.00 | 0.04 | 0.00 | 54 | 1012.4 |
| 20260502235304 | 74 | 350 | 4.0 | 10.0 | 0.00 | 0.04 | 0.00 | 54 | 1012.4 |
| 20260502235203 | 74 | 327 | 4.0 | 10.0 | 0.00 | 0.04 | 0.00 | 55 | 1012.4 |
| 20260502235102 | 74 | 351 | 4.0 | 10.0 | 0.00 | 0.04 | 0.00 | 53 | 1012.4 |
| 20260502235004 | 74 | 329 | 6.0 | 12.0 | 0.00 | 0.04 | 0.00 | 53 | 1012.5 |
| 20260502234904 | 74 | 338 | 6.0 | 12.0 | 0.00 | 0.04 | 0.00 | 53 | 1012.4 |
| 20260502234802 | 74 | 353 | 6.0 | 12.0 | 0.00 | 0.04 | 0.00 | 53 | 1012.4 |
| 20260502234703 | 74 | 345 | 6.0 | 12.0 | 0.00 | 0.04 | 0.00 | 53 | 1012.4 |
| 20260502234604 | 74 | 354 | 6.0 | 12.0 | 0.00 | 0.05 | 0.00 | 53 | 1012.4 |
| 20260502234503 | 74 | 355 | 5.0 | 12.0 | 0.00 | 0.05 | 0.00 | 53 | 1012.5 |
| 20260502234403 | 74 | 0 | 5.0 | 12.0 | 0.00 | 0.05 | 0.00 | 53 | 1012.4 |
| 20260502234302 | 74 | 0 | 7.0 | 12.0 | 0.00 | 0.05 | 0.00 | 53 | 1012.4 |
| 20260502234203 | 74 | 0 | 8.0 | 12.0 | 0.00 | 0.05 | 0.00 | 53 | 1012.4 |
| 20260502234103 | 74 | 344 | 8.0 | 12.0 | 0.00 | 0.05 | 0.00 | 54 | 1012.5 |
| 20260502234002 | 74 | 347 | 6.0 | 10.0 | 0.00 | 0.05 | 0.00 | 54 | 1012.5 |
| 20260502233903 | 74 | 1 | 6.0 | 10.0 | 0.00 | 0.05 | 0.00 | 54 | 1012.4 |
| 20260502233802 | 74 | 341 | 6.0 | 9.0 | 0.00 | 0.05 | 0.00 | 54 | 1012.4 |
| 20260502233703 | 74 | 310 | 6.0 | 10.0 | 0.00 | 0.05 | 0.00 | 53 | 1012.5 |
| 20260502233601 | 74 | 348 | 6.0 | 11.0 | 0.00 | 0.05 | 0.00 | 54 | 1012.4 |
| 20260502233502 | 74 | 336 | 7.0 | 11.0 | 0.00 | 0.05 | 0.00 | 53 | 1012.4 |
| 20260502233402 | 74 | 329 | 7.0 | 11.0 | 0.00 | 0.05 | 0.00 | 53 | 1012.3 |
| 20260502233302 | 74 | 350 | 5.0 | 11.0 | 0.00 | 0.05 | 0.00 | 53 | 1012.3 |
| 20260502233202 | 74 | 0 | 4.0 | 11.0 | 0.00 | 0.05 | 0.00 | 53 | 1012.4 |
| 20260502233103 | 74 | 11 | 4.0 | 11.0 | 0.00 | 0.05 | 0.00 | 53 | 1012.3 |
| 20260502233005 | 74 | 42 | 5.0 | 11.0 | 0.00 | 0.05 | 0.00 | 52 | 1012.3 |
| 20260502232903 | 74 | 10 | 6.0 | 11.0 | 0.00 | 0.05 | 0.00 | 52 | 1012.4 |
| 20260502232803 | 74 | 10 | 8.0 | 13.0 | 0.00 | 0.05 | 0.00 | 53 | 1012.3 |
| 20260502232702 | 74 | 0 | 8.0 | 13.0 | 0.00 | 0.05 | 0.00 | 53 | 1012.3 |
| 20260502232603 | 75 | 338 | 7.0 | 13.0 | 0.00 | 0.05 | 0.00 | 53 | 1012.3 |
| 20260502232502 | 75 | 317 | 6.0 | 13.0 | 0.00 | 0.05 | 0.00 | 53 | 1012.3 |
| 20260502232403 | 75 | 357 | 5.0 | 13.0 | 0.00 | 0.05 | 0.00 | 53 | 1012.3 |
| 20260502232305 | 75 | 347 | 6.0 | 13.0 | 0.00 | 0.05 | 0.00 | 53 | 1012.4 |
| 20260502232203 | 75 | 343 | 7.0 | 13.0 | 0.00 | 0.05 | 0.00 | 52 | 1012.4 |
| 20260502232104 | 75 | 0 | 7.0 | 13.0 | 0.00 | 0.05 | 0.00 | 52 | 1012.4 |
| 20260502232003 | 75 | 344 | 6.0 | 13.0 | 0.00 | 0.05 | 0.00 | 53 | 1012.4 |
| 20260502231905 | 75 | 340 | 6.0 | 13.0 | 0.00 | 0.05 | 0.00 | 53 | 1012.5 |
| 20260502231802 | 75 | 0 | 5.0 | 10.0 | 0.00 | 0.05 | 0.00 | 53 | 1012.4 |
| 20260502231703 | 75 | 1 | 6.0 | 10.0 | 0.00 | 0.05 | 0.00 | 55 | 1012.3 |
| 20260502231603 | 75 | 0 | 5.0 | 10.0 | 0.00 | 0.05 | 0.00 | 55 | 1012.4 |
| 20260502231504 | 75 | 0 | 4.0 | 10.0 | 0.00 | 0.05 | 0.00 | 54 | 1012.4 |
| 20260502231403 | 75 | 344 | 5.0 | 10.0 | 0.00 | 0.05 | 0.00 | 54 | 1012.4 |
| 20260502231303 | 75 | 13 | 5.0 | 10.0 | 0.00 | 0.05 | 0.00 | 54 | 1012.4 |
| 20260502231202 | 75 | 6 | 5.0 | 10.0 | 0.00 | 0.05 | 0.00 | 53 | 1012.4 |
| 20260502231104 | 75 | 347 | 6.0 | 10.0 | 0.00 | 0.05 | 0.00 | 53 | 1012.4 |
| 20260502231004 | 75 | 0 | 6.0 | 10.0 | 0.00 | 0.05 | 0.00 | 51 | 1012.4 |
| 20260502230904 | 75 | 334 | 6.0 | 10.0 | 0.00 | 0.05 | 0.00 | 51 | 1012.4 |
| 20260502230802 | 75 | 340 | 6.0 | 10.0 | 0.00 | 0.05 | 0.00 | 53 | 1012.3 |
| 20260502230704 | 75 | 341 | 5.0 | 10.0 | 0.00 | 0.05 | 0.00 | 55 | 1012.4 |
| 20260502230603 | 75 | 348 | 4.0 | 10.0 | 0.00 | 0.05 | 0.00 | 53 | 1012.4 |
| 20260502230504 | 75 | 344 | 4.0 | 10.0 | 0.00 | 0.05 | 0.00 | 54 | 1012.3 |
| 20260502230403 | 75 | 25 | 4.0 | 11.0 | 0.00 | 0.05 | 0.00 | 53 | 1012.3 |
| 20260502230303 | 75 | 63 | 5.0 | 11.0 | 0.00 | 0.05 | 0.00 | 52 | 1012.3 |
| 20260502230204 | 75 | 76 | 6.0 | 11.0 | 0.00 | 0.05 | 0.00 | 52 | 1012.3 |
| 20260502230003 | 75 | 7 | 5.0 | 11.0 | 0.00 | 0.05 | 0.00 | 52 | 1012.3 |
| 20260502225903 | 75 | 344 | 7.0 | 12.0 | 0.00 | 0.05 | 0.00 | 52 | 1012.3 |
| 20260502225803 | 75 | 344 | 7.0 | 12.0 | 0.00 | 0.06 | 0.00 | 52 | 1012.4 |
| 20260502225703 | 75 | 344 | 7.0 | 12.0 | 0.00 | 0.06 | 0.00 | 52 | 1012.3 |
| 20260502225604 | 75 | 344 | 7.0 | 12.0 | 0.00 | 0.06 | 0.00 | 52 | 1012.3 |
| 20260502225504 | 75 | 344 | 7.0 | 12.0 | 0.00 | 0.06 | 0.00 | 52 | 1012.3 |
| 20260502225403 | 75 | 353 | 6.0 | 13.0 | 0.00 | 0.06 | 0.00 | 51 | 1012.3 |
| 20260502225304 | 75 | 1 | 7.0 | 13.0 | 0.00 | 0.06 | 0.00 | 51 | 1012.2 |
| 20260502225203 | 75 | 68 | 8.0 | 15.0 | 0.00 | 0.06 | 0.00 | 51 | 1012.3 |
| 20260502225104 | 75 | 6 | 8.0 | 15.0 | 0.00 | 0.06 | 0.00 | 50 | 1012.2 |
| 20260502225003 | 75 | 35 | 8.0 | 16.0 | 0.00 | 0.06 | 0.00 | 52 | 1012.3 |
| 20260502224901 | 75 | 11 | 7.0 | 16.0 | 0.00 | 0.06 | 0.00 | 52 | 1012.2 |
| 20260502224804 | 75 | 0 | 8.0 | 16.0 | 0.00 | 0.06 | 0.00 | 52 | 1012.3 |
| 20260502224704 | 75 | 358 | 8.0 | 16.0 | 0.00 | 0.06 | 0.00 | 52 | 1012.3 |
| 20260502224604 | 75 | 0 | 8.0 | 16.0 | 0.00 | 0.06 | 0.00 | 52 | 1012.2 |
| 20260502224504 | 75 | 350 | 9.0 | 16.0 | 0.00 | 0.06 | 0.00 | 52 | 1012.3 |
| 20260502224403 | 75 | 0 | 10.0 | 16.0 | 0.00 | 0.06 | 0.00 | 52 | 1012.3 |
| 20260502224302 | 75 | 340 | 10.0 | 16.0 | 0.00 | 0.06 | 0.00 | 52 | 1012.3 |
| 20260502224202 | 75 | 358 | 11.0 | 16.0 | 0.00 | 0.06 | 0.00 | 52 | 1012.3 |
| 20260502224102 | 75 | 8 | 10.0 | 16.0 | 0.00 | 0.06 | 0.00 | 52 | 1012.3 |
| 20260502224004 | 75 | 331 | 7.0 | 12.0 | 0.00 | 0.06 | 0.00 | 52 | 1012.2 |
| 20260502223903 | 75 | 354 | 7.0 | 12.0 | 0.00 | 0.06 | 0.00 | 52 | 1012.2 |
| 20260502223803 | 75 | 310 | 6.0 | 12.0 | 0.00 | 0.06 | 0.00 | 53 | 1012.2 |
| 20260502223702 | 75 | 6 | 6.0 | 12.0 | 0.00 | 0.06 | 0.00 | 52 | 1012.2 |
| 20260502223603 | 75 | 6 | 7.0 | 12.0 | 0.00 | 0.06 | 0.00 | 52 | 1012.3 |
| 20260502223505 | 74 | 345 | 8.0 | 12.0 | 0.00 | 0.06 | 0.00 | 51 | 1012.3 |
| 20260502223401 | 75 | 344 | 8.0 | 12.0 | 0.00 | 0.06 | 0.00 | 53 | 1012.3 |
| 20260502223304 | 75 | 329 | 9.0 | 12.0 | 0.00 | 0.06 | 0.00 | 51 | 1012.3 |
| 20260502223204 | 75 | 350 | 10.0 | 12.0 | 0.00 | 0.06 | 0.00 | 51 | 1012.3 |
| 20260502223103 | 75 | 341 | 9.0 | 12.0 | 0.00 | 0.06 | 0.00 | 51 | 1012.3 |
| 20260502223004 | 75 | 0 | 8.0 | 12.0 | 0.00 | 0.06 | 0.00 | 51 | 1012.4 |
| 20260502222902 | 75 | 331 | 9.0 | 12.0 | 0.00 | 0.06 | 0.00 | 51 | 1012.3 |
| 20260502222803 | 75 | 334 | 9.0 | 12.0 | 0.00 | 0.06 | 0.00 | 52 | 1012.2 |
| 20260502222705 | 75 | 340 | 8.0 | 11.0 | 0.00 | 0.06 | 0.00 | 52 | 1012.3 |
| 20260502222604 | 75 | 0 | 7.0 | 11.0 | 0.00 | 0.06 | 0.00 | 52 | 1012.3 |
| 20260502222504 | 75 | 23 | 7.0 | 12.0 | 0.00 | 0.06 | 0.00 | 52 | 1012.4 |
| 20260502222402 | 75 | 18 | 7.0 | 12.0 | 0.00 | 0.06 | 0.00 | 52 | 1012.4 |
| 20260502222305 | 75 | 347 | 7.0 | 12.0 | 0.00 | 0.06 | 0.00 | 52 | 1012.4 |
| 20260502222204 | 75 | 21 | 6.0 | 12.0 | 0.00 | 0.06 | 0.00 | 51 | 1012.4 |
| 20260502222102 | 75 | 348 | 6.0 | 12.0 | 0.00 | 0.06 | 0.00 | 50 | 1012.4 |
| 20260502222003 | 75 | 10 | 6.0 | 12.0 | 0.00 | 0.06 | 0.00 | 50 | 1012.3 |
| 20260502221902 | 75 | 35 | 6.0 | 12.0 | 0.00 | 0.06 | 0.00 | 49 | 1012.3 |
| 20260502221803 | 75 | 14 | 6.0 | 12.0 | 0.00 | 0.06 | 0.00 | 53 | 1012.4 |
| 20260502221702 | 75 | 44 | 7.0 | 12.0 | 0.00 | 0.06 | 0.00 | 53 | 1012.4 |
| 20260502221603 | 75 | 351 | 9.0 | 12.0 | 0.00 | 0.06 | 0.00 | 53 | 1012.3 |
| 20260502221502 | 75 | 7 | 8.0 | 12.0 | 0.00 | 0.06 | 0.00 | 53 | 1012.3 |
| 20260502221404 | 75 | 1 | 8.0 | 12.0 | 0.00 | 0.06 | 0.00 | 53 | 1012.2 |
| 20260502221302 | 75 | 343 | 8.0 | 12.0 | 0.00 | 0.06 | 0.00 | 52 | 1012.3 |
| 20260502221202 | 75 | 317 | 6.0 | 11.0 | 0.00 | 0.06 | 0.00 | 52 | 1012.4 |
| 20260502221103 | 75 | 44 | 4.0 | 14.0 | 0.00 | 0.06 | 0.00 | 52 | 1012.2 |
| 20260502221002 | 75 | 348 | 4.0 | 14.0 | 0.00 | 0.06 | 0.00 | 52 | 1012.2 |
| 20260502220902 | 75 | 351 | 6.0 | 14.0 | 0.00 | 0.06 | 0.00 | 52 | 1012.3 |
| 20260502220803 | 75 | 345 | 6.0 | 14.0 | 0.00 | 0.06 | 0.00 | 52 | 1012.3 |
| 20260502220703 | 75 | 18 | 4.0 | 14.0 | 0.00 | 0.06 | 0.00 | 51 | 1012.4 |
| 20260502220603 | 75 | 30 | 4.0 | 14.0 | 0.00 | 0.06 | 0.00 | 50 | 1012.3 |
| 20260502220504 | 75 | 20 | 5.0 | 14.0 | 0.00 | 0.06 | 0.00 | 51 | 1012.4 |
| 20260502220402 | 75 | 21 | 7.0 | 14.0 | 0.00 | 0.06 | 0.00 | 51 | 1012.4 |
| 20260502220303 | 75 | 61 | 8.0 | 14.0 | 0.00 | 0.06 | 0.00 | 51 | 1012.4 |
| 20260502220202 | 75 | 35 | 8.0 | 14.0 | 0.00 | 0.06 | 0.00 | 53 | 1012.4 |
| 20260502220104 | 75 | 6 | 6.0 | 12.0 | 0.00 | 0.06 | 0.00 | 53 | 1012.5 |
| 20260502220004 | 75 | 0 | 6.0 | 12.0 | 0.00 | 0.06 | 0.00 | 52 | 1012.5 |
| 20260502215904 | 75 | 7 | 7.0 | 12.0 | 0.00 | 0.06 | 0.00 | 52 | 1012.4 |
| 20260502215803 | 75 | 0 | 6.0 | 13.0 | 0.00 | 0.06 | 0.00 | 52 | 1012.5 |
| 20260502215703 | 75 | 338 | 6.0 | 13.0 | 0.00 | 0.06 | 0.00 | 51 | 1012.5 |
| 20260502215604 | 75 | 0 | 6.0 | 13.0 | 0.00 | 0.06 | 0.00 | 51 | 1012.5 |
| 20260502215504 | 75 | 8 | 8.0 | 13.0 | 0.00 | 0.06 | 0.00 | 53 | 1012.5 |
| 20260502215403 | 75 | 348 | 8.0 | 13.0 | 0.00 | 0.06 | 0.00 | 53 | 1012.5 |
| 20260502215305 | 75 | 354 | 8.0 | 13.0 | 0.00 | 0.06 | 0.00 | 53 | 1012.6 |
| 20260502215202 | 75 | 350 | 8.0 | 13.0 | 0.00 | 0.06 | 0.00 | 53 | 1012.5 |
| 20260502215103 | 75 | 0 | 8.0 | 13.0 | 0.00 | 0.06 | 0.00 | 53 | 1012.5 |
| 20260502215004 | 75 | 345 | 8.0 | 13.0 | 0.00 | 0.06 | 0.00 | 53 | 1012.5 |
| 20260502214903 | 75 | 337 | 7.0 | 13.0 | 0.00 | 0.06 | 0.00 | 53 | 1012.4 |
| 20260502214802 | 74 | 358 | 6.0 | 13.0 | 0.00 | 0.06 | 0.00 | 53 | 1012.4 |
| 20260502214702 | 74 | 3 | 6.0 | 15.0 | 0.00 | 0.06 | 0.00 | 52 | 1012.5 |
| 20260502214603 | 74 | 21 | 6.0 | 15.0 | 0.00 | 0.06 | 0.00 | 52 | 1012.4 |
| 20260502214502 | 74 | 355 | 7.0 | 15.0 | 0.00 | 0.06 | 0.00 | 52 | 1012.4 |
| 20260502214403 | 74 | 0 | 9.0 | 15.0 | 0.00 | 0.06 | 0.00 | 53 | 1012.5 |
| 20260502214303 | 74 | 354 | 8.0 | 15.0 | 0.00 | 0.06 | 0.00 | 53 | 1012.5 |
| 20260502214204 | 74 | 345 | 5.0 | 15.0 | 0.00 | 0.06 | 0.00 | 53 | 1012.4 |
| 20260502214104 | 74 | 0 | 7.0 | 15.0 | 0.00 | 0.06 | 0.00 | 50 | 1012.4 |